Wetterdaten: Freitag, 30.04.2010
Datum Zeit Temp. Innen Temp. Aussen UV X Diff Temp. Feuchte Inne Feuchte Auss Sonnenschein Luftdruck Regen ab 0,1 Wind Sonnenschein Windben
30.04.2010 00:02 22,0 C 20,5 C 0,0 UV-I 0,0 C 46 % 51 % 0 % 1006,8 hPa 0,0 l/m 5,2 km/h (1 Bft) 0 min 8,4 km/h (2 Bft)
30.04.2010 00:06 22,0 C 20,4 C 0,0 UV-I 0,0 C 46 % 50 % 0 % 1006,8 hPa 0,0 l/m 3,2 km/h (1 Bft) 0 min 6,8 km/h (2 Bft)
30.04.2010 00:08 22,0 C 20,4 C 0,0 UV-I 0,0 C 46 % 51 % 0 % 1006,8 hPa 0,0 l/m 2,0 km/h (1 Bft) 0 min 0,0 km/h (0 Bft)
30.04.2010 00:10 22,0 C 20,4 C 0,0 UV-I 0,0 C 46 % 51 % 0 % 1006,8 hPa 0,0 l/m 1,6 km/h (1 Bft) 0 min 0,0 km/h (0 Bft)
30.04.2010 00:12 21,9 C 20,4 C 0,0 UV-I 0,0 C 46 % 50 % 0 % 1006,6 hPa 0,0 l/m 0,8 km/h (0 Bft) 0 min 5,6 km/h (1 Bft)
30.04.2010 00:14 21,9 C 20,4 C 0,0 UV-I 0,0 C 46 % 51 % 0 % 1006,6 hPa 0,0 l/m 0,8 km/h (0 Bft) 0 min 0,0 km/h (0 Bft)
30.04.2010 00:16 21,9 C 20,3 C 0,0 UV-I 0,0 C 46 % 51 % 0 % 1006,6 hPa 0,0 l/m 1,2 km/h (1 Bft) 0 min 11,6 km/h (2 Bft)
30.04.2010 00:22 21,9 C 20,3 C 0,0 UV-I 0,0 C 46 % 51 % 0 % 1006,6 hPa 0,0 l/m 5,2 km/h (1 Bft) 0 min 13,7 km/h (3 Bft)
30.04.2010 00:24 21,9 C 20,3 C 0,0 UV-I 0,0 C 46 % 52 % 0 % 1006,6 hPa 0,0 l/m 6,0 km/h (2 Bft) 0 min 0,0 km/h (0 Bft)
30.04.2010 00:26 21,9 C 20,3 C 0,0 UV-I 0,0 C 46 % 51 % 0 % 1006,6 hPa 0,0 l/m 5,6 km/h (1 Bft) 0 min 0,0 km/h (0 Bft)
30.04.2010 00:28 21,9 C 20,3 C 0,0 UV-I 0,0 C 46 % 52 % 0 % 1006,6 hPa 0,0 l/m 4,8 km/h (1 Bft) 0 min 0,0 km/h (0 Bft)
30.04.2010 00:32 21,9 C 20,2 C 0,0 UV-I 0,0 C 46 % 52 % 0 % 1006,2 hPa 0,0 l/m 3,6 km/h (1 Bft) 0 min 6,0 km/h (2 Bft)
30.04.2010 00:34 21,9 C 20,3 C 0,0 UV-I 0,0 C 46 % 52 % 0 % 1006,2 hPa 0,0 l/m 2,8 km/h (1 Bft) 0 min 0,0 km/h (0 Bft)
30.04.2010 00:36 21,9 C 20,3 C 0,0 UV-I 0,0 C 46 % 52 % 0 % 1006,2 hPa 0,0 l/m 3,2 km/h (1 Bft) 0 min 9,6 km/h (2 Bft)
30.04.2010 00:38 21,9 C 20,2 C 0,0 UV-I 0,0 C 46 % 53 % 0 % 1006,2 hPa 0,0 l/m 4,4 km/h (1 Bft) 0 min 6,4 km/h (2 Bft)
30.04.2010 00:42 21,9 C 20,1 C 0,0 UV-I 0,0 C 46 % 53 % 0 % 1006,2 hPa 0,0 l/m 4,4 km/h (1 Bft) 0 min 11,6 km/h (2 Bft)
30.04.2010 00:44 21,9 C 20,1 C 0,0 UV-I 0,0 C 46 % 52 % 0 % 1006,2 hPa 0,0 l/m 3,2 km/h (1 Bft) 0 min 4,8 km/h (1 Bft)
30.04.2010 00:46 21,9 C 20,1 C 0,0 UV-I 0,0 C 46 % 53 % 0 % 1006,2 hPa 0,0 l/m 4,0 km/h (1 Bft) 0 min 4,4 km/h (1 Bft)
30.04.2010 00:48 21,9 C 20,1 C 0,0 UV-I 0,0 C 46 % 53 % 0 % 1006,2 hPa 0,0 l/m 3,2 km/h (1 Bft) 0 min 9,6 km/h (2 Bft)
30.04.2010 00:50 21,9 C 20,1 C 0,0 UV-I 0,0 C 46 % 53 % 0 % 1006,2 hPa 0,0 l/m 3,6 km/h (1 Bft) 0 min 14,5 km/h (3 Bft)
30.04.2010 00:52 21,9 C 20,1 C 0,0 UV-I 0,0 C 46 % 53 % 0 % 1006,1 hPa 0,0 l/m 3,6 km/h (1 Bft) 0 min 8,8 km/h (2 Bft)
30.04.2010 00:54 21,9 C 20,1 C 0,0 UV-I 0,0 C 46 % 53 % 0 % 1006,1 hPa 0,0 l/m 4,4 km/h (1 Bft) 0 min 5,6 km/h (1 Bft)
30.04.2010 00:56 21,9 C 20,1 C 0,0 UV-I 0,0 C 46 % 53 % 0 % 1006,1 hPa 0,0 l/m 4,4 km/h (1 Bft) 0 min 4,8 km/h (1 Bft)
30.04.2010 00:58 21,9 C 20,1 C 0,0 UV-I 0,0 C 46 % 53 % 0 % 1006,1 hPa 0,0 l/m 4,8 km/h (1 Bft) 0 min 10,4 km/h (2 Bft)
30.04.2010 01:00 21,9 C 20,1 C 0,0 UV-I 0,0 C 46 % 53 % 0 % 1006,1 hPa 0,0 l/m 4,0 km/h (1 Bft) 0 min 4,0 km/h (1 Bft)
30.04.2010 01:02 21,9 C 20,2 C 0,0 UV-I 0,0 C 46 % 53 % 0 % 1006,1 hPa 0,0 l/m 4,4 km/h (1 Bft) 0 min 4,0 km/h (1 Bft)
30.04.2010 01:04 21,9 C 20,2 C 0,0 UV-I 0,0 C 46 % 54 % 0 % 1006,1 hPa 0,0 l/m 4,0 km/h (1 Bft) 0 min 0,0 km/h (0 Bft)
30.04.2010 01:06 21,9 C 20,2 C 0,0 UV-I 0,0 C 46 % 54 % 0 % 1006,1 hPa 0,0 l/m 4,0 km/h (1 Bft) 0 min 4,4 km/h (1 Bft)
30.04.2010 01:10 21,9 C 20,1 C 0,0 UV-I 0,1 C 46 % 54 % 0 % 1006,1 hPa 0,0 l/m 4,0 km/h (1 Bft) 0 min 7,6 km/h (2 Bft)
30.04.2010 01:12 21,9 C 20,1 C 0,0 UV-I 0,1 C 46 % 54 % 0 % 1005,8 hPa 0,0 l/m 4,0 km/h (1 Bft) 0 min 10,8 km/h (2 Bft)
30.04.2010 01:14 21,9 C 20,1 C 0,0 UV-I 0,2 C 46 % 54 % 0 % 1005,8 hPa 0,0 l/m 3,6 km/h (1 Bft) 0 min 4,8 km/h (1 Bft)
30.04.2010 01:16 21,9 C 20,2 C 0,0 UV-I 0,1 C 46 % 54 % 0 % 1005,8 hPa 0,0 l/m 4,0 km/h (1 Bft) 0 min 7,6 km/h (2 Bft)
30.04.2010 01:18 21,9 C 20,2 C 0,0 UV-I 0,1 C 46 % 54 % 0 % 1005,8 hPa 0,0 l/m 4,4 km/h (1 Bft) 0 min 0,0 km/h (0 Bft)
30.04.2010 01:22 21,9 C 20,2 C 0,0 UV-I 0,1 C 46 % 54 % 0 % 1005,8 hPa 0,0 l/m 5,6 km/h (1 Bft) 0 min 10,8 km/h (2 Bft)
30.04.2010 01:24 21,9 C 20,3 C 0,0 UV-I 0,0 C 46 % 54 % 0 % 1005,8 hPa 0,0 l/m 6,0 km/h (2 Bft) 0 min 12,0 km/h (2 Bft)
30.04.2010 01:28 21,9 C 20,3 C 0,0 UV-I 0,0 C 46 % 54 % 0 % 1005,8 hPa 0,0 l/m 4,8 km/h (1 Bft) 0 min 6,0 km/h (2 Bft)
30.04.2010 01:30 21,9 C 20,3 C 0,0 UV-I 0,0 C 46 % 54 % 0 % 1005,8 hPa 0,0 l/m 5,2 km/h (1 Bft) 0 min 12,0 km/h (2 Bft)
30.04.2010 01:32 21,8 C 20,2 C 0,0 UV-I 0,1 C 46 % 55 % 0 % 1005,4 hPa 0,0 l/m 5,2 km/h (1 Bft) 0 min 12,8 km/h (3 Bft)
30.04.2010 01:34 21,9 C 20,1 C 0,0 UV-I 0,2 C 46 % 55 % 0 % 1005,4 hPa 0,0 l/m 4,8 km/h (1 Bft) 0 min 8,0 km/h (2 Bft)
30.04.2010 01:36 21,9 C 20,1 C 0,0 UV-I 0,1 C 46 % 55 % 0 % 1005,4 hPa 0,0 l/m 4,8 km/h (1 Bft) 0 min 0,0 km/h (0 Bft)
30.04.2010 01:38 21,9 C 20,1 C 0,0 UV-I 0,1 C 46 % 55 % 0 % 1005,4 hPa 0,0 l/m 5,6 km/h (1 Bft) 0 min 10,4 km/h (2 Bft)
30.04.2010 01:40 21,9 C 20,1 C 0,0 UV-I 0,1 C 47 % 55 % 0 % 1005,4 hPa 0,0 l/m 7,2 km/h (2 Bft) 0 min 17,3 km/h (3 Bft)
30.04.2010 01:42 21,8 C 20,1 C 0,0 UV-I 0,1 C 46 % 55 % 0 % 1005,4 hPa 0,0 l/m 6,8 km/h (2 Bft) 0 min 6,4 km/h (2 Bft)
30.04.2010 01:46 21,8 C 20,1 C 0,0 UV-I 0,0 C 46 % 55 % 0 % 1005,4 hPa 0,0 l/m 6,8 km/h (2 Bft) 0 min 16,1 km/h (3 Bft)
30.04.2010 01:50 21,8 C 20,1 C 0,0 UV-I 0,0 C 47 % 55 % 0 % 1005,4 hPa 0,0 l/m 7,2 km/h (2 Bft) 0 min 13,7 km/h (3 Bft)
30.04.2010 01:52 21,8 C 20,1 C 0,0 UV-I 0,0 C 47 % 58 % 0 % 1005,2 hPa 0,0 l/m 7,6 km/h (2 Bft) 0 min 11,2 km/h (2 Bft)
30.04.2010 01:54 21,8 C 20,0 C 0,0 UV-I 0,0 C 47 % 59 % 0 % 1005,2 hPa 0,0 l/m 7,6 km/h (2 Bft) 0 min 8,0 km/h (2 Bft)
30.04.2010 01:56 21,8 C 20,0 C 0,0 UV-I 0,0 C 47 % 60 % 0 % 1005,2 hPa 0,0 l/m 8,0 km/h (2 Bft) 0 min 14,1 km/h (3 Bft)
30.04.2010 01:58 21,8 C 19,9 C 0,0 UV-I 0,0 C 47 % 61 % 0 % 1005,2 hPa 0,0 l/m 8,0 km/h (2 Bft) 0 min 11,2 km/h (2 Bft)
30.04.2010 02:00 21,8 C 19,9 C 0,0 UV-I 0,0 C 47 % 62 % 0 % 1005,2 hPa 0,0 l/m 8,8 km/h (2 Bft) 0 min 20,9 km/h (4 Bft)
30.04.2010 02:02 21,8 C 19,7 C 0,0 UV-I 0,0 C 47 % 62 % 0 % 1005,2 hPa 0,0 l/m 8,0 km/h (2 Bft) 0 min 8,4 km/h (2 Bft)
30.04.2010 02:04 21,8 C 19,6 C 0,0 UV-I 0,0 C 47 % 62 % 0 % 1005,2 hPa 0,0 l/m 8,0 km/h (2 Bft) 0 min 13,7 km/h (3 Bft)
30.04.2010 02:06 21,8 C 19,7 C 0,0 UV-I 0,0 C 47 % 62 % 0 % 1005,2 hPa 0,0 l/m 7,6 km/h (2 Bft) 0 min 11,6 km/h (2 Bft)
30.04.2010 02:08 21,8 C 19,6 C 0,0 UV-I 0,0 C 47 % 61 % 0 % 1005,2 hPa 0,0 l/m 6,8 km/h (2 Bft) 0 min 7,2 km/h (2 Bft)
30.04.2010 02:10 21,8 C 19,6 C 0,0 UV-I 0,0 C 47 % 61 % 0 % 1005,2 hPa 0,0 l/m 6,8 km/h (2 Bft) 0 min 16,1 km/h (3 Bft)
30.04.2010 02:12 21,8 C 19,6 C 0,0 UV-I 0,0 C 47 % 60 % 0 % 1005,5 hPa 0,0 l/m 7,2 km/h (2 Bft) 0 min 7,6 km/h (2 Bft)
30.04.2010 02:14 21,8 C 19,7 C 0,0 UV-I 0,0 C 47 % 60 % 0 % 1005,5 hPa 0,0 l/m 7,2 km/h (2 Bft) 0 min 8,4 km/h (2 Bft)
30.04.2010 02:16 21,8 C 19,8 C 0,0 UV-I 0,0 C 48 % 60 % 0 % 1005,5 hPa 0,0 l/m 7,2 km/h (2 Bft) 0 min 12,0 km/h (2 Bft)
30.04.2010 02:18 21,8 C 19,8 C 0,0 UV-I 0,0 C 48 % 61 % 0 % 1005,5 hPa 0,0 l/m 7,2 km/h (2 Bft) 0 min 7,6 km/h (2 Bft)
30.04.2010 02:20 21,8 C 19,7 C 0,0 UV-I 0,0 C 48 % 61 % 0 % 1005,5 hPa 0,0 l/m 6,8 km/h (2 Bft) 0 min 32,5 km/h (5 Bft)
30.04.2010 02:22 21,8 C 19,7 C 0,0 UV-I 0,0 C 48 % 61 % 0 % 1005,5 hPa 0,0 l/m 7,2 km/h (2 Bft) 0 min 8,8 km/h (2 Bft)
30.04.2010 02:24 21,8 C 19,6 C 0,0 UV-I 0,0 C 48 % 60 % 0 % 1005,5 hPa 0,0 l/m 7,2 km/h (2 Bft) 0 min 18,1 km/h (3 Bft)
30.04.2010 02:26 21,8 C 19,6 C 0,0 UV-I 0,0 C 48 % 61 % 0 % 1005,5 hPa 0,0 l/m 7,6 km/h (2 Bft) 0 min 6,0 km/h (2 Bft)
30.04.2010 02:28 21,8 C 19,6 C 0,0 UV-I 0,0 C 48 % 61 % 0 % 1005,5 hPa 0,0 l/m 8,0 km/h (2 Bft) 0 min 14,1 km/h (3 Bft)
30.04.2010 02:30 21,8 C 19,7 C 0,0 UV-I 0,0 C 48 % 61 % 0 % 1005,5 hPa 0,0 l/m 8,0 km/h (2 Bft) 0 min 9,6 km/h (2 Bft)
30.04.2010 02:32 21,8 C 19,6 C 0,0 UV-I 0,0 C 48 % 61 % 0 % 1005,9 hPa 0,0 l/m 8,4 km/h (2 Bft) 0 min 4,8 km/h (1 Bft)
30.04.2010 02:34 21,8 C 19,6 C 0,0 UV-I 0,0 C 48 % 61 % 0 % 1005,9 hPa 0,0 l/m 7,6 km/h (2 Bft) 0 min 6,4 km/h (2 Bft)
30.04.2010 02:36 21,8 C 19,6 C 0,0 UV-I 0,0 C 48 % 61 % 0 % 1005,9 hPa 0,0 l/m 7,6 km/h (2 Bft) 0 min 10,8 km/h (2 Bft)
30.04.2010 02:38 21,8 C 19,5 C 0,0 UV-I 0,0 C 48 % 61 % 0 % 1005,9 hPa 0,0 l/m 8,0 km/h (2 Bft) 0 min 6,4 km/h (2 Bft)
30.04.2010 02:40 21,8 C 19,5 C 0,0 UV-I 0,0 C 48 % 62 % 0 % 1005,9 hPa 0,0 l/m 8,0 km/h (2 Bft) 0 min 10,0 km/h (2 Bft)
30.04.2010 02:42 21,8 C 19,5 C 0,0 UV-I 0,0 C 48 % 62 % 0 % 1005,9 hPa 0,0 l/m 8,0 km/h (2 Bft) 0 min 14,1 km/h (3 Bft)
30.04.2010 02:48 21,8 C 19,5 C 0,0 UV-I 0,0 C 48 % 62 % 0 % 1005,9 hPa 0,0 l/m 6,4 km/h (2 Bft) 0 min 5,2 km/h (1 Bft)
30.04.2010 02:50 21,8 C 19,3 C 0,0 UV-I 0,0 C 48 % 62 % 0 % 1005,9 hPa 0,0 l/m 5,6 km/h (1 Bft) 0 min 4,4 km/h (1 Bft)
30.04.2010 02:52 21,8 C 19,3 C 0,0 UV-I 0,0 C 48 % 63 % 0 % 1006,3 hPa 0,0 l/m 5,2 km/h (1 Bft) 0 min 9,2 km/h (2 Bft)
30.04.2010 02:54 21,8 C 19,2 C 0,0 UV-I 0,0 C 48 % 62 % 0 % 1006,3 hPa 0,0 l/m 4,4 km/h (1 Bft) 0 min 8,4 km/h (2 Bft)
30.04.2010 02:56 21,8 C 19,3 C 0,0 UV-I 0,0 C 48 % 63 % 0 % 1006,3 hPa 0,0 l/m 3,6 km/h (1 Bft) 0 min 6,0 km/h (2 Bft)
30.04.2010 02:58 21,8 C 19,2 C 0,0 UV-I 0,0 C 49 % 63 % 0 % 1006,3 hPa 0,0 l/m 4,0 km/h (1 Bft) 0 min 10,4 km/h (2 Bft)
30.04.2010 03:00 21,8 C 19,2 C 0,0 UV-I 0,0 C 49 % 63 % 0 % 1006,3 hPa 0,0 l/m 4,4 km/h (1 Bft) 0 min 7,2 km/h (2 Bft)
30.04.2010 03:02 21,8 C 19,1 C 0,0 UV-I 0,0 C 49 % 63 % 0 % 1006,3 hPa 0,0 l/m 5,2 km/h (1 Bft) 0 min 6,8 km/h (2 Bft)
30.04.2010 03:04 21,8 C 19,1 C 0,0 UV-I 0,0 C 49 % 63 % 0 % 1006,3 hPa 0,0 l/m 5,2 km/h (1 Bft) 0 min 6,8 km/h (2 Bft)
30.04.2010 03:06 21,8 C 19,1 C 0,0 UV-I 0,0 C 49 % 63 % 0 % 1006,3 hPa 0,0 l/m 6,0 km/h (2 Bft) 0 min 15,3 km/h (3 Bft)
30.04.2010 03:08 21,8 C 19,1 C 0,0 UV-I 0,0 C 49 % 63 % 0 % 1006,3 hPa 0,0 l/m 6,8 km/h (2 Bft) 0 min 9,2 km/h (2 Bft)
30.04.2010 03:10 21,7 C 19,1 C 0,0 UV-I 0,0 C 49 % 64 % 0 % 1006,3 hPa 0,0 l/m 6,8 km/h (2 Bft) 0 min 7,2 km/h (2 Bft)
30.04.2010 03:12 21,7 C 19,0 C 0,0 UV-I 0,0 C 49 % 63 % 0 % 1006,3 hPa 0,0 l/m 6,4 km/h (2 Bft) 0 min 5,6 km/h (1 Bft)
30.04.2010 03:14 21,7 C 18,9 C 0,0 UV-I 0,0 C 49 % 64 % 0 % 1006,3 hPa 0,0 l/m 6,0 km/h (2 Bft) 0 min 0,0 km/h (0 Bft)
30.04.2010 03:16 21,7 C 18,9 C 0,0 UV-I 0,0 C 49 % 64 % 0 % 1006,3 hPa 0,0 l/m 6,0 km/h (2 Bft) 0 min 5,6 km/h (1 Bft)
30.04.2010 03:18 21,7 C 18,8 C 0,0 UV-I 0,0 C 49 % 64 % 0 % 1006,3 hPa 0,0 l/m 5,2 km/h (1 Bft) 0 min 8,0 km/h (2 Bft)
30.04.2010 03:20 21,7 C 18,9 C 0,0 UV-I 0,0 C 49 % 63 % 0 % 1006,3 hPa 0,0 l/m 5,6 km/h (1 Bft) 0 min 7,2 km/h (2 Bft)
30.04.2010 03:22 21,7 C 18,8 C 0,0 UV-I 0,0 C 49 % 64 % 0 % 1006,3 hPa 0,0 l/m 5,2 km/h (1 Bft) 0 min 7,2 km/h (2 Bft)
30.04.2010 03:24 21,7 C 18,8 C 0,0 UV-I 0,0 C 49 % 64 % 0 % 1006,3 hPa 0,0 l/m 5,6 km/h (1 Bft) 0 min 8,0 km/h (2 Bft)
30.04.2010 03:26 21,7 C 18,7 C 0,0 UV-I 0,0 C 49 % 64 % 0 % 1006,3 hPa 0,0 l/m 6,4 km/h (2 Bft) 0 min 14,5 km/h (3 Bft)
30.04.2010 03:28 21,7 C 18,7 C 0,0 UV-I 0,0 C 49 % 64 % 0 % 1006,3 hPa 0,0 l/m 6,0 km/h (2 Bft) 0 min 5,2 km/h (1 Bft)
30.04.2010 03:32 21,7 C 18,5 C 0,0 UV-I 0,0 C 49 % 64 % 0 % 1006,4 hPa 0,0 l/m 7,6 km/h (2 Bft) 0 min 16,1 km/h (3 Bft)
30.04.2010 03:34 21,7 C 18,5 C 0,0 UV-I 0,0 C 49 % 64 % 0 % 1006,4 hPa 0,0 l/m 8,4 km/h (2 Bft) 0 min 11,6 km/h (2 Bft)
30.04.2010 03:36 21,7 C 18,5 C 0,0 UV-I 0,0 C 49 % 64 % 0 % 1006,4 hPa 0,0 l/m 9,2 km/h (2 Bft) 0 min 12,0 km/h (2 Bft)
30.04.2010 03:38 21,7 C 18,4 C 0,0 UV-I 0,0 C 49 % 64 % 0 % 1006,4 hPa 0,0 l/m 10,8 km/h (2 Bft) 0 min 18,9 km/h (3 Bft)
30.04.2010 03:42 21,7 C 18,4 C 0,0 UV-I 0,0 C 49 % 65 % 0 % 1006,4 hPa 0,0 l/m 9,6 km/h (2 Bft) 0 min 13,7 km/h (3 Bft)
30.04.2010 03:44 21,7 C 18,3 C 0,0 UV-I 0,0 C 49 % 65 % 0 % 1006,4 hPa 0,0 l/m 10,4 km/h (2 Bft) 0 min 12,8 km/h (3 Bft)
30.04.2010 03:46 21,7 C 18,2 C 0,0 UV-I 0,0 C 49 % 65 % 0 % 1006,4 hPa 0,0 l/m 9,6 km/h (2 Bft) 0 min 12,8 km/h (3 Bft)
30.04.2010 03:48 21,6 C 18,3 C 0,0 UV-I 0,0 C 49 % 66 % 0 % 1006,4 hPa 0,0 l/m 8,0 km/h (2 Bft) 0 min 8,8 km/h (2 Bft)
30.04.2010 03:52 21,6 C 18,1 C 0,0 UV-I 0,0 C 49 % 66 % 0 % 1007,0 hPa 0,0 l/m 7,2 km/h (2 Bft) 0 min 13,3 km/h (3 Bft)
30.04.2010 03:54 21,6 C 18,0 C 0,0 UV-I 0,0 C 49 % 66 % 0 % 1007,0 hPa 0,0 l/m 7,2 km/h (2 Bft) 0 min 12,8 km/h (3 Bft)
30.04.2010 03:56 21,6 C 18,0 C 0,0 UV-I 0,0 C 49 % 66 % 0 % 1007,0 hPa 0,0 l/m 6,4 km/h (2 Bft) 0 min 4,0 km/h (1 Bft)
30.04.2010 03:58 21,6 C 17,9 C 0,0 UV-I 0,0 C 50 % 67 % 0 % 1007,0 hPa 0,0 l/m 6,4 km/h (2 Bft) 0 min 14,5 km/h (3 Bft)
30.04.2010 04:00 21,6 C 17,8 C 0,0 UV-I 0,0 C 50 % 67 % 0 % 1007,0 hPa 0,0 l/m 6,8 km/h (2 Bft) 0 min 7,2 km/h (2 Bft)
30.04.2010 04:02 21,6 C 17,9 C 0,0 UV-I 0,0 C 50 % 68 % 0 % 1007,0 hPa 0,0 l/m 7,2 km/h (2 Bft) 0 min 13,7 km/h (3 Bft)
30.04.2010 04:04 21,6 C 17,8 C 0,0 UV-I 0,0 C 50 % 68 % 0 % 1007,0 hPa 0,0 l/m 7,2 km/h (2 Bft) 0 min 18,1 km/h (3 Bft)
30.04.2010 04:06 21,6 C 17,7 C 0,0 UV-I 0,0 C 50 % 68 % 0 % 1007,0 hPa 0,0 l/m 8,0 km/h (2 Bft) 0 min 26,1 km/h (4 Bft)
30.04.2010 04:08 21,6 C 17,7 C 0,0 UV-I 0,0 C 50 % 69 % 0 % 1007,0 hPa 0,0 l/m 8,8 km/h (2 Bft) 0 min 17,3 km/h (3 Bft)
30.04.2010 04:13 21,6 C 17,6 C 0,0 UV-I 0,0 C 50 % 69 % 0 % 1007,3 hPa 0,0 l/m 8,8 km/h (2 Bft) 0 min 9,6 km/h (2 Bft)
30.04.2010 04:18 21,5 C 17,5 C 0,0 UV-I 0,0 C 50 % 70 % 0 % 1007,3 hPa 0,0 l/m 8,4 km/h (2 Bft) 0 min 16,1 km/h (3 Bft)
30.04.2010 04:19 21,5 C 17,5 C 0,0 UV-I 0,0 C 50 % 70 % 0 % 1007,3 hPa 0,0 l/m 8,4 km/h (2 Bft) 0 min 16,1 km/h (3 Bft)
30.04.2010 04:22 21,5 C 17,4 C 0,0 UV-I 0,0 C 50 % 70 % 0 % 1007,3 hPa 0,0 l/m 8,0 km/h (2 Bft) 0 min 8,4 km/h (2 Bft)
30.04.2010 04:24 21,5 C 17,3 C 0,0 UV-I 0,0 C 50 % 71 % 0 % 1007,3 hPa 0,0 l/m 8,8 km/h (2 Bft) 0 min 16,1 km/h (3 Bft)
30.04.2010 04:26 21,5 C 17,2 C 0,0 UV-I 0,0 C 50 % 71 % 0 % 1007,3 hPa 0,0 l/m 9,2 km/h (2 Bft) 0 min 11,2 km/h (2 Bft)
30.04.2010 04:28 21,5 C 17,3 C 0,0 UV-I 0,0 C 50 % 71 % 0 % 1007,3 hPa 0,0 l/m 9,2 km/h (2 Bft) 0 min 8,0 km/h (2 Bft)
30.04.2010 04:30 21,5 C 17,3 C 0,0 UV-I 0,0 C 51 % 71 % 0 % 1007,3 hPa 0,0 l/m 8,4 km/h (2 Bft) 0 min 16,1 km/h (3 Bft)
30.04.2010 04:32 21,5 C 17,1 C 0,0 UV-I 0,0 C 51 % 72 % 0 % 1007,6 hPa 0,0 l/m 8,8 km/h (2 Bft) 0 min 10,8 km/h (2 Bft)
30.04.2010 04:34 21,5 C 17,1 C 0,0 UV-I 0,0 C 51 % 72 % 0 % 1007,6 hPa 0,0 l/m 9,2 km/h (2 Bft) 0 min 11,6 km/h (2 Bft)
30.04.2010 04:36 21,5 C 17,0 C 0,0 UV-I 0,0 C 51 % 72 % 0 % 1007,6 hPa 0,0 l/m 9,2 km/h (2 Bft) 0 min 8,8 km/h (2 Bft)
30.04.2010 04:38 21,5 C 17,1 C 0,0 UV-I 0,0 C 51 % 72 % 0 % 1007,6 hPa 0,0 l/m 8,8 km/h (2 Bft) 0 min 15,7 km/h (3 Bft)
30.04.2010 04:40 21,4 C 17,0 C 0,0 UV-I 0,0 C 51 % 72 % 0 % 1007,6 hPa 0,0 l/m 9,6 km/h (2 Bft) 0 min 22,9 km/h (4 Bft)
30.04.2010 04:42 21,4 C 16,9 C 0,0 UV-I 0,0 C 51 % 72 % 0 % 1007,6 hPa 0,0 l/m 10,4 km/h (2 Bft) 0 min 16,5 km/h (3 Bft)
30.04.2010 04:44 21,4 C 16,9 C 0,0 UV-I 0,0 C 51 % 72 % 0 % 1007,6 hPa 0,0 l/m 10,8 km/h (2 Bft) 0 min 9,2 km/h (2 Bft)
30.04.2010 04:46 21,4 C 16,9 C 0,0 UV-I 0,0 C 51 % 72 % 0 % 1007,6 hPa 0,0 l/m 10,0 km/h (2 Bft) 0 min 6,4 km/h (2 Bft)
30.04.2010 04:48 21,4 C 16,8 C 0,0 UV-I 0,0 C 51 % 73 % 0 % 1007,6 hPa 0,0 l/m 9,2 km/h (2 Bft) 0 min 15,7 km/h (3 Bft)
30.04.2010 04:50 21,4 C 16,7 C 0,0 UV-I 0,0 C 51 % 73 % 0 % 1007,6 hPa 0,0 l/m 9,2 km/h (2 Bft) 0 min 16,9 km/h (3 Bft)
30.04.2010 04:52 21,4 C 16,6 C 0,0 UV-I 0,0 C 51 % 73 % 0 % 1008,3 hPa 0,0 l/m 8,4 km/h (2 Bft) 0 min 11,2 km/h (2 Bft)
30.04.2010 04:54 21,4 C 16,6 C 0,0 UV-I 0,0 C 51 % 73 % 0 % 1008,3 hPa 0,0 l/m 8,0 km/h (2 Bft) 0 min 11,6 km/h (2 Bft)
30.04.2010 04:56 21,4 C 16,5 C 0,0 UV-I 0,0 C 51 % 74 % 0 % 1008,3 hPa 0,0 l/m 8,4 km/h (2 Bft) 0 min 16,5 km/h (3 Bft)
30.04.2010 04:58 21,4 C 16,5 C 0,0 UV-I 0,0 C 51 % 74 % 0 % 1008,3 hPa 0,0 l/m 9,2 km/h (2 Bft) 0 min 15,7 km/h (3 Bft)
30.04.2010 05:00 21,4 C 16,4 C 0,0 UV-I 0,0 C 51 % 74 % 0 % 1008,3 hPa 0,0 l/m 9,6 km/h (2 Bft) 0 min 25,3 km/h (4 Bft)
30.04.2010 05:02 21,2 C 16,4 C 0,0 UV-I 0,0 C 51 % 74 % 0 % 1008,3 hPa 0,0 l/m 9,2 km/h (2 Bft) 0 min 15,3 km/h (3 Bft)
30.04.2010 05:04 21,2 C 16,3 C 0,0 UV-I 0,0 C 51 % 74 % 0 % 1008,3 hPa 0,0 l/m 9,2 km/h (2 Bft) 0 min 12,0 km/h (2 Bft)
30.04.2010 05:06 21,2 C 16,2 C 0,0 UV-I 0,0 C 51 % 74 % 0 % 1008,3 hPa 0,0 l/m 9,2 km/h (2 Bft) 0 min 8,8 km/h (2 Bft)
30.04.2010 05:08 21,2 C 16,3 C 0,0 UV-I 0,0 C 51 % 74 % 0 % 1008,3 hPa 0,0 l/m 9,2 km/h (2 Bft) 0 min 9,6 km/h (2 Bft)
30.04.2010 05:10 21,2 C 16,1 C 0,0 UV-I 0,0 C 51 % 75 % 0 % 1008,3 hPa 0,0 l/m 9,2 km/h (2 Bft) 0 min 14,5 km/h (3 Bft)
30.04.2010 05:12 21,2 C 16,1 C 0,0 UV-I 0,0 C 52 % 75 % 0 % 1008,5 hPa 0,0 l/m 8,8 km/h (2 Bft) 0 min 9,6 km/h (2 Bft)
30.04.2010 05:14 21,2 C 16,0 C 0,0 UV-I 0,0 C 51 % 75 % 0 % 1008,5 hPa 0,0 l/m 8,4 km/h (2 Bft) 0 min 8,4 km/h (2 Bft)
30.04.2010 05:16 21,3 C 16,0 C 0,0 UV-I 0,0 C 52 % 75 % 0 % 1008,5 hPa 0,0 l/m 8,0 km/h (2 Bft) 0 min 5,6 km/h (1 Bft)
30.04.2010 05:18 21,3 C 15,9 C 0,0 UV-I 0,0 C 52 % 75 % 0 % 1008,5 hPa 0,0 l/m 8,0 km/h (2 Bft) 0 min 12,0 km/h (2 Bft)
30.04.2010 05:20 21,2 C 15,9 C 0,0 UV-I 0,0 C 52 % 75 % 0 % 1008,5 hPa 0,0 l/m 7,6 km/h (2 Bft) 0 min 6,0 km/h (2 Bft)
30.04.2010 05:22 21,3 C 15,8 C 0,0 UV-I 0,0 C 52 % 75 % 0 % 1008,5 hPa 0,0 l/m 8,0 km/h (2 Bft) 0 min 19,3 km/h (3 Bft)
30.04.2010 05:24 21,2 C 15,7 C 0,0 UV-I 0,0 C 52 % 75 % 0 % 1008,5 hPa 0,0 l/m 7,6 km/h (2 Bft) 0 min 7,6 km/h (2 Bft)
30.04.2010 05:26 21,2 C 15,6 C 0,0 UV-I 0,0 C 52 % 76 % 0 % 1008,5 hPa 0,0 l/m 8,0 km/h (2 Bft) 0 min 6,0 km/h (2 Bft)
30.04.2010 05:28 21,2 C 15,7 C 0,0 UV-I 0,0 C 52 % 76 % 0 % 1008,5 hPa 0,0 l/m 8,8 km/h (2 Bft) 0 min 9,2 km/h (2 Bft)
30.04.2010 05:30 21,2 C 15,6 C 0,0 UV-I 0,0 C 52 % 76 % 0 % 1008,5 hPa 0,0 l/m 8,8 km/h (2 Bft) 0 min 7,6 km/h (2 Bft)
30.04.2010 05:32 21,2 C 15,5 C 0,0 UV-I 0,0 C 52 % 76 % 0 % 1008,8 hPa 0,0 l/m 9,2 km/h (2 Bft) 0 min 9,6 km/h (2 Bft)
30.04.2010 05:34 21,2 C 15,5 C 0,0 UV-I 0,0 C 52 % 76 % 0 % 1008,8 hPa 0,0 l/m 8,4 km/h (2 Bft) 0 min 7,6 km/h (2 Bft)
30.04.2010 05:36 21,2 C 15,4 C 0,0 UV-I 0,0 C 52 % 76 % 0 % 1008,8 hPa 0,0 l/m 8,8 km/h (2 Bft) 0 min 29,3 km/h (5 Bft)
30.04.2010 05:38 21,2 C 15,3 C 0,0 UV-I 0,0 C 52 % 76 % 0 % 1008,8 hPa 0,0 l/m 8,4 km/h (2 Bft) 0 min 9,6 km/h (2 Bft)
30.04.2010 05:40 21,2 C 15,2 C 0,0 UV-I 0,0 C 52 % 76 % 0 % 1008,8 hPa 0,0 l/m 8,4 km/h (2 Bft) 0 min 8,0 km/h (2 Bft)
30.04.2010 05:42 21,2 C 15,2 C 0,0 UV-I 0,0 C 52 % 76 % 0 % 1008,8 hPa 0,0 l/m 8,8 km/h (2 Bft) 0 min 11,6 km/h (2 Bft)
30.04.2010 05:44 21,2 C 15,1 C 0,0 UV-I 0,0 C 52 % 76 % 0 % 1008,8 hPa 0,0 l/m 8,8 km/h (2 Bft) 0 min 18,9 km/h (3 Bft)
30.04.2010 05:46 21,2 C 15,1 C 0,0 UV-I 0,0 C 52 % 76 % 0 % 1008,8 hPa 0,0 l/m 9,2 km/h (2 Bft) 0 min 11,2 km/h (2 Bft)
30.04.2010 05:48 21,2 C 15,1 C 0,0 UV-I 0,0 C 52 % 76 % 0 % 1008,8 hPa 0,0 l/m 9,6 km/h (2 Bft) 0 min 23,7 km/h (4 Bft)
30.04.2010 05:50 21,1 C 15,0 C 0,0 UV-I 0,0 C 52 % 77 % 0 % 1008,8 hPa 0,0 l/m 10,0 km/h (2 Bft) 0 min 22,9 km/h (4 Bft)
30.04.2010 05:52 21,1 C 14,9 C 0,0 UV-I 0,0 C 52 % 77 % 0 % 1008,8 hPa 0,0 l/m 10,4 km/h (2 Bft) 0 min 10,4 km/h (2 Bft)
30.04.2010 05:54 21,1 C 14,8 C 0,0 UV-I 0,0 C 52 % 77 % 0 % 1008,8 hPa 0,0 l/m 10,8 km/h (2 Bft) 0 min 18,9 km/h (3 Bft)
30.04.2010 05:56 21,1 C 14,8 C 0,0 UV-I 0,0 C 52 % 77 % 0 % 1008,8 hPa 0,0 l/m 10,0 km/h (2 Bft) 0 min 20,9 km/h (4 Bft)
30.04.2010 05:58 21,1 C 14,8 C 0,0 UV-I 0,0 C 52 % 77 % 0 % 1008,8 hPa 0,0 l/m 9,6 km/h (2 Bft) 0 min 6,0 km/h (2 Bft)
30.04.2010 06:00 21,1 C 14,7 C 0,0 UV-I 0,0 C 52 % 77 % 0 % 1008,8 hPa 0,0 l/m 8,4 km/h (2 Bft) 0 min 10,8 km/h (2 Bft)
30.04.2010 06:02 21,0 C 14,7 C 0,0 UV-I 0,0 C 52 % 77 % 0 % 1008,8 hPa 0,0 l/m 7,2 km/h (2 Bft) 0 min 8,0 km/h (2 Bft)
30.04.2010 06:04 21,1 C 14,7 C 0,0 UV-I 0,0 C 52 % 77 % 0 % 1008,8 hPa 0,0 l/m 7,2 km/h (2 Bft) 0 min 8,0 km/h (2 Bft)
30.04.2010 06:06 21,0 C 14,7 C 0,0 UV-I 0,0 C 52 % 77 % 0 % 1008,8 hPa 0,0 l/m 6,8 km/h (2 Bft) 0 min 8,0 km/h (2 Bft)
30.04.2010 06:08 21,0 C 14,7 C 0,0 UV-I 0,0 C 52 % 77 % 0 % 1008,8 hPa 0,0 l/m 6,4 km/h (2 Bft) 0 min 7,6 km/h (2 Bft)
30.04.2010 06:10 21,0 C 14,5 C 0,0 UV-I 0,0 C 52 % 77 % 0 % 1008,8 hPa 0,0 l/m 6,8 km/h (2 Bft) 0 min 16,5 km/h (3 Bft)
30.04.2010 06:12 21,0 C 14,4 C 0,0 UV-I 0,0 C 52 % 77 % 0 % 1008,7 hPa 0,0 l/m 6,8 km/h (2 Bft) 0 min 9,2 km/h (2 Bft)
30.04.2010 06:14 21,0 C 14,4 C 0,0 UV-I 0,0 C 52 % 77 % 0 % 1008,7 hPa 0,0 l/m 6,0 km/h (2 Bft) 0 min 9,2 km/h (2 Bft)
30.04.2010 06:16 21,0 C 14,5 C 0,0 UV-I 0,0 C 52 % 77 % 0 % 1008,7 hPa 0,0 l/m 4,8 km/h (1 Bft) 0 min 5,6 km/h (1 Bft)
30.04.2010 06:18 21,0 C 14,4 C 0,0 UV-I 0,0 C 52 % 77 % 0 % 1008,7 hPa 0,0 l/m 4,4 km/h (1 Bft) 0 min 16,9 km/h (3 Bft)
30.04.2010 06:20 21,0 C 14,3 C 0,0 UV-I 0,0 C 52 % 77 % 0 % 1008,7 hPa 0,0 l/m 4,0 km/h (1 Bft) 0 min 5,2 km/h (1 Bft)
30.04.2010 06:22 21,0 C 14,3 C 0,0 UV-I 0,0 C 52 % 78 % 0 % 1008,7 hPa 0,0 l/m 4,0 km/h (1 Bft) 0 min 6,8 km/h (2 Bft)
30.04.2010 06:24 21,0 C 14,3 C 0,0 UV-I 0,0 C 52 % 78 % 0 % 1008,7 hPa 0,0 l/m 4,0 km/h (1 Bft) 0 min 9,6 km/h (2 Bft)
30.04.2010 06:26 20,9 C 14,3 C 0,0 UV-I 0,0 C 52 % 78 % 0 % 1008,7 hPa 0,0 l/m 4,0 km/h (1 Bft) 0 min 4,4 km/h (1 Bft)
30.04.2010 06:28 20,9 C 14,2 C 0,0 UV-I 0,0 C 52 % 78 % 0 % 1008,7 hPa 0,0 l/m 4,8 km/h (1 Bft) 0 min 8,0 km/h (2 Bft)
30.04.2010 06:30 21,0 C 14,1 C 0,0 UV-I 0,0 C 52 % 79 % 0 % 1008,7 hPa 0,0 l/m 4,8 km/h (1 Bft) 0 min 9,2 km/h (2 Bft)
30.04.2010 06:32 20,9 C 14,0 C 0,0 UV-I 0,0 C 52 % 78 % 0 % 1008,8 hPa 0,0 l/m 5,2 km/h (1 Bft) 0 min 10,4 km/h (2 Bft)
30.04.2010 06:34 20,9 C 14,1 C 0,0 UV-I 0,0 C 52 % 79 % 0 % 1008,8 hPa 0,0 l/m 5,2 km/h (1 Bft) 0 min 5,6 km/h (1 Bft)
30.04.2010 06:36 20,9 C 14,0 C 0,0 UV-I 0,0 C 52 % 79 % 0 % 1008,8 hPa 0,0 l/m 5,2 km/h (1 Bft) 0 min 6,4 km/h (2 Bft)
30.04.2010 06:38 20,9 C 14,0 C 0,0 UV-I 0,0 C 52 % 79 % 0 % 1008,8 hPa 0,0 l/m 5,2 km/h (1 Bft) 0 min 7,2 km/h (2 Bft)
30.04.2010 06:40 20,9 C 14,0 C 0,0 UV-I 0,0 C 52 % 79 % 0 % 1008,8 hPa 0,0 l/m 5,2 km/h (1 Bft) 0 min 6,0 km/h (2 Bft)
30.04.2010 06:42 20,9 C 14,0 C 0,0 UV-I 0,0 C 52 % 79 % 0 % 1008,8 hPa 0,0 l/m 4,4 km/h (1 Bft) 0 min 6,8 km/h (2 Bft)
30.04.2010 06:44 20,9 C 14,0 C 0,0 UV-I 0,0 C 52 % 79 % 0 % 1008,8 hPa 0,0 l/m 3,6 km/h (1 Bft) 0 min 6,0 km/h (2 Bft)
30.04.2010 06:46 20,9 C 14,0 C 0,0 UV-I 0,0 C 52 % 79 % 0 % 1008,8 hPa 0,0 l/m 2,8 km/h (1 Bft) 0 min 0,0 km/h (0 Bft)
30.04.2010 06:48 20,9 C 13,9 C 0,0 UV-I 0,0 C 52 % 79 % 0 % 1008,8 hPa 0,0 l/m 2,0 km/h (1 Bft) 0 min 8,0 km/h (2 Bft)
30.04.2010 06:50 20,8 C 13,9 C 0,0 UV-I 0,0 C 52 % 79 % 0 % 1008,8 hPa 0,0 l/m 2,4 km/h (1 Bft) 0 min 7,6 km/h (2 Bft)
30.04.2010 06:52 20,8 C 13,9 C 0,0 UV-I 0,0 C 52 % 79 % 0 % 1008,9 hPa 0,0 l/m 2,4 km/h (1 Bft) 0 min 9,6 km/h (2 Bft)
30.04.2010 06:54 20,8 C 13,9 C 0,0 UV-I 0,0 C 52 % 80 % 0 % 1008,9 hPa 0,0 l/m 2,8 km/h (1 Bft) 0 min 0,0 km/h (0 Bft)
30.04.2010 06:56 20,8 C 13,9 C 0,0 UV-I 0,0 C 52 % 80 % 0 % 1008,9 hPa 0,0 l/m 2,8 km/h (1 Bft) 0 min 4,4 km/h (1 Bft)
30.04.2010 06:58 20,8 C 13,9 C 0,0 UV-I 0,0 C 52 % 80 % 0 % 1008,9 hPa 0,0 l/m 2,8 km/h (1 Bft) 0 min 4,4 km/h (1 Bft)
30.04.2010 07:00 20,8 C 13,9 C 0,1 UV-I 0,0 C 52 % 80 % 0 % 1008,9 hPa 0,0 l/m 2,4 km/h (1 Bft) 0 min 6,8 km/h (2 Bft)
30.04.2010 07:02 20,8 C 13,8 C 0,1 UV-I 0,0 C 52 % 80 % 0 % 1008,9 hPa 0,0 l/m 2,4 km/h (1 Bft) 0 min 5,6 km/h (1 Bft)
30.04.2010 07:04 20,8 C 13,9 C 0,1 UV-I 0,0 C 52 % 80 % 0 % 1008,9 hPa 0,0 l/m 2,4 km/h (1 Bft) 0 min 6,0 km/h (2 Bft)
30.04.2010 07:06 20,8 C 13,9 C 0,2 UV-I 0,0 C 52 % 80 % 0 % 1008,9 hPa 0,0 l/m 2,4 km/h (1 Bft) 0 min 5,2 km/h (1 Bft)
30.04.2010 07:08 20,8 C 13,8 C 0,2 UV-I 0,0 C 52 % 80 % 0 % 1008,9 hPa 0,0 l/m 3,2 km/h (1 Bft) 0 min 6,0 km/h (2 Bft)
30.04.2010 07:10 20,8 C 13,9 C 0,2 UV-I 0,0 C 52 % 80 % 0 % 1008,9 hPa 0,0 l/m 2,8 km/h (1 Bft) 0 min 4,4 km/h (1 Bft)
30.04.2010 07:12 20,8 C 13,9 C 0,2 UV-I 0,0 C 52 % 80 % 0 % 1009,4 hPa 0,0 l/m 3,6 km/h (1 Bft) 0 min 7,2 km/h (2 Bft)
30.04.2010 07:14 20,8 C 13,9 C 0,2 UV-I 0,0 C 52 % 81 % 0 % 1009,4 hPa 0,0 l/m 4,4 km/h (1 Bft) 0 min 12,0 km/h (2 Bft)
30.04.2010 07:16 20,8 C 13,9 C 0,1 UV-I 0,0 C 52 % 81 % 0 % 1009,4 hPa 0,0 l/m 6,0 km/h (2 Bft) 0 min 15,3 km/h (3 Bft)
30.04.2010 07:18 20,8 C 13,8 C 0,1 UV-I 0,0 C 52 % 80 % 0 % 1009,4 hPa 0,0 l/m 6,4 km/h (2 Bft) 0 min 9,2 km/h (2 Bft)
30.04.2010 07:20 20,8 C 13,9 C 0,2 UV-I 0,0 C 52 % 80 % 0 % 1009,4 hPa 0,0 l/m 8,0 km/h (2 Bft) 0 min 13,7 km/h (3 Bft)
30.04.2010 07:22 20,8 C 13,9 C 0,2 UV-I 0,0 C 52 % 80 % 0 % 1009,4 hPa 0,0 l/m 8,8 km/h (2 Bft) 0 min 12,4 km/h (3 Bft)
30.04.2010 07:24 20,8 C 13,9 C 0,2 UV-I 0,0 C 52 % 80 % 0 % 1009,4 hPa 0,0 l/m 8,8 km/h (2 Bft) 0 min 7,2 km/h (2 Bft)
30.04.2010 07:26 20,8 C 13,9 C 0,3 UV-I 0,0 C 52 % 80 % 0 % 1009,4 hPa 0,0 l/m 9,2 km/h (2 Bft) 0 min 10,4 km/h (2 Bft)
30.04.2010 07:28 20,8 C 13,8 C 0,3 UV-I 0,0 C 52 % 80 % 0 % 1009,4 hPa 0,0 l/m 10,0 km/h (2 Bft) 0 min 7,6 km/h (2 Bft)
30.04.2010 07:30 20,8 C 13,9 C 0,4 UV-I 0,0 C 52 % 80 % 0 % 1009,4 hPa 0,0 l/m 8,8 km/h (2 Bft) 0 min 6,0 km/h (2 Bft)
30.04.2010 07:32 20,8 C 13,9 C 0,4 UV-I 0,0 C 52 % 80 % 0 % 1009,4 hPa 0,0 l/m 9,2 km/h (2 Bft) 0 min 7,2 km/h (2 Bft)
30.04.2010 07:34 20,8 C 13,9 C 0,4 UV-I 0,0 C 52 % 80 % 0 % 1009,4 hPa 0,0 l/m 9,6 km/h (2 Bft) 0 min 12,0 km/h (2 Bft)
30.04.2010 07:36 20,8 C 13,8 C 0,4 UV-I 0,0 C 52 % 80 % 0 % 1009,4 hPa 0,0 l/m 9,6 km/h (2 Bft) 0 min 12,0 km/h (2 Bft)
30.04.2010 07:38 20,8 C 13,9 C 0,4 UV-I 0,0 C 52 % 80 % 0 % 1009,4 hPa 0,0 l/m 8,0 km/h (2 Bft) 0 min 6,0 km/h (2 Bft)
30.04.2010 07:40 20,8 C 13,9 C 0,3 UV-I 0,0 C 52 % 80 % 0 % 1009,4 hPa 0,0 l/m 7,6 km/h (2 Bft) 0 min 8,0 km/h (2 Bft)
30.04.2010 07:42 20,8 C 13,9 C 0,3 UV-I 0,0 C 52 % 80 % 0 % 1009,4 hPa 0,0 l/m 7,6 km/h (2 Bft) 0 min 12,0 km/h (2 Bft)
30.04.2010 07:44 20,7 C 13,9 C 0,3 UV-I 0,0 C 52 % 79 % 0 % 1009,4 hPa 0,0 l/m 6,8 km/h (2 Bft) 0 min 15,3 km/h (3 Bft)
30.04.2010 07:46 20,8 C 13,9 C 0,5 UV-I 0,0 C 52 % 80 % 0 % 1009,4 hPa 0,0 l/m 6,8 km/h (2 Bft) 0 min 18,5 km/h (3 Bft)
30.04.2010 07:48 20,8 C 13,9 C 0,5 UV-I 0,0 C 52 % 79 % 0 % 1009,4 hPa 0,0 l/m 6,8 km/h (2 Bft) 0 min 5,6 km/h (1 Bft)
30.04.2010 07:50 20,7 C 14,0 C 0,6 UV-I 0,0 C 52 % 79 % 0 % 1009,4 hPa 0,0 l/m 6,4 km/h (2 Bft) 0 min 16,5 km/h (3 Bft)
30.04.2010 07:52 20,8 C 14,0 C 0,6 UV-I 0,0 C 52 % 79 % 0 % 1010,0 hPa 0,0 l/m 7,2 km/h (2 Bft) 0 min 14,5 km/h (3 Bft)
30.04.2010 07:54 20,7 C 14,0 C 0,6 UV-I 0,0 C 52 % 79 % 0 % 1010,0 hPa 0,0 l/m 7,6 km/h (2 Bft) 0 min 17,3 km/h (3 Bft)
30.04.2010 07:56 20,7 C 14,0 C 0,6 UV-I 0,1 C 52 % 79 % 3 % 1010,0 hPa 0,0 l/m 7,6 km/h (2 Bft) 0 min 7,2 km/h (2 Bft)
30.04.2010 07:58 20,8 C 14,0 C 0,6 UV-I 0,3 C 52 % 79 % 9 % 1010,0 hPa 0,0 l/m 7,6 km/h (2 Bft) 0 min 18,1 km/h (3 Bft)
30.04.2010 08:00 20,7 C 14,1 C 0,7 UV-I 0,3 C 52 % 79 % 9 % 1010,0 hPa 0,0 l/m 10,0 km/h (2 Bft) 0 min 17,3 km/h (3 Bft)
30.04.2010 08:02 20,8 C 14,1 C 0,7 UV-I 0,5 C 52 % 79 % 14 % 1010,0 hPa 0,0 l/m 10,4 km/h (2 Bft) 0 min 11,2 km/h (2 Bft)
30.04.2010 08:04 20,8 C 14,1 C 0,7 UV-I 0,5 C 52 % 79 % 14 % 1010,0 hPa 0,0 l/m 10,4 km/h (2 Bft) 0 min 10,4 km/h (2 Bft)
30.04.2010 08:06 20,8 C 14,1 C 0,4 UV-I 0,6 C 52 % 79 % 17 % 1010,0 hPa 0,0 l/m 11,2 km/h (2 Bft) 0 min 17,3 km/h (3 Bft)
30.04.2010 08:08 20,8 C 14,1 C 0,4 UV-I 0,6 C 52 % 79 % 17 % 1010,0 hPa 0,0 l/m 11,6 km/h (2 Bft) 0 min 12,0 km/h (2 Bft)
30.04.2010 08:10 20,8 C 14,2 C 0,4 UV-I 0,6 C 52 % 79 % 17 % 1010,0 hPa 0,0 l/m 11,2 km/h (2 Bft) 0 min 9,6 km/h (2 Bft)
30.04.2010 08:12 20,8 C 14,3 C 0,4 UV-I 0,5 C 52 % 78 % 14 % 1009,8 hPa 0,0 l/m 11,2 km/h (2 Bft) 0 min 12,0 km/h (2 Bft)
30.04.2010 08:16 20,8 C 14,2 C 0,2 UV-I 0,7 C 52 % 78 % 20 % 1009,8 hPa 0,0 l/m 11,6 km/h (2 Bft) 0 min 17,7 km/h (3 Bft)
30.04.2010 08:18 20,8 C 14,3 C 0,2 UV-I 0,6 C 52 % 77 % 17 % 1009,8 hPa 0,0 l/m 12,8 km/h (3 Bft) 0 min 11,6 km/h (2 Bft)
30.04.2010 08:20 20,8 C 14,2 C 0,2 UV-I 0,7 C 52 % 77 % 20 % 1009,8 hPa 0,0 l/m 12,0 km/h (2 Bft) 0 min 43,4 km/h (6 Bft)
30.04.2010 08:22 20,8 C 14,3 C 0,2 UV-I 0,6 C 52 % 77 % 17 % 1009,8 hPa 0,0 l/m 11,6 km/h (2 Bft) 0 min 18,1 km/h (3 Bft)
30.04.2010 08:24 20,8 C 14,3 C 0,2 UV-I 0,5 C 52 % 77 % 14 % 1009,8 hPa 0,0 l/m 11,6 km/h (2 Bft) 0 min 10,8 km/h (2 Bft)
30.04.2010 08:26 20,8 C 14,3 C 0,1 UV-I 0,5 C 52 % 77 % 14 % 1009,8 hPa 0,0 l/m 11,6 km/h (2 Bft) 0 min 19,7 km/h (3 Bft)
30.04.2010 08:28 20,8 C 14,3 C 0,1 UV-I 0,4 C 52 % 77 % 11 % 1009,8 hPa 0,0 l/m 10,4 km/h (2 Bft) 0 min 16,9 km/h (3 Bft)
30.04.2010 08:30 20,8 C 14,3 C 0,0 UV-I 0,3 C 52 % 77 % 9 % 1009,8 hPa 0,0 l/m 10,4 km/h (2 Bft) 0 min 15,3 km/h (3 Bft)
30.04.2010 08:32 20,8 C 14,3 C 0,0 UV-I 0,3 C 52 % 77 % 9 % 1010,4 hPa 0,0 l/m 11,2 km/h (2 Bft) 0 min 29,7 km/h (5 Bft)
30.04.2010 08:34 20,8 C 14,3 C 0,0 UV-I 0,2 C 52 % 77 % 6 % 1010,4 hPa 0,0 l/m 11,2 km/h (2 Bft) 0 min 22,9 km/h (4 Bft)
30.04.2010 08:36 20,8 C 14,2 C 0,0 UV-I 0,2 C 52 % 77 % 6 % 1010,4 hPa 0,0 l/m 11,6 km/h (2 Bft) 0 min 20,5 km/h (4 Bft)
30.04.2010 08:38 20,8 C 14,3 C 0,0 UV-I 0,0 C 52 % 76 % 0 % 1010,4 hPa 0,0 l/m 12,4 km/h (3 Bft) 0 min 24,9 km/h (4 Bft)
30.04.2010 08:40 20,8 C 14,3 C 0,0 UV-I 0,0 C 52 % 76 % 0 % 1010,4 hPa 0,0 l/m 12,4 km/h (3 Bft) 0 min 14,1 km/h (3 Bft)
30.04.2010 08:42 20,7 C 14,3 C 0,0 UV-I 0,0 C 52 % 76 % 0 % 1010,4 hPa 0,0 l/m 11,6 km/h (2 Bft) 0 min 8,0 km/h (2 Bft)
30.04.2010 08:44 20,8 C 14,1 C 0,0 UV-I 0,0 C 52 % 76 % 0 % 1010,4 hPa 0,0 l/m 11,2 km/h (2 Bft) 0 min 17,3 km/h (3 Bft)
30.04.2010 08:46 20,8 C 14,1 C 0,0 UV-I 0,0 C 52 % 76 % 0 % 1010,4 hPa 0,0 l/m 11,2 km/h (2 Bft) 0 min 22,1 km/h (4 Bft)
30.04.2010 08:48 20,7 C 14,1 C 0,0 UV-I 0,0 C 52 % 76 % 0 % 1010,4 hPa 0,0 l/m 10,4 km/h (2 Bft) 0 min 14,5 km/h (3 Bft)
30.04.2010 08:50 20,7 C 14,1 C 0,0 UV-I 0,0 C 52 % 76 % 0 % 1010,4 hPa 0,0 l/m 9,2 km/h (2 Bft) 0 min 12,4 km/h (3 Bft)
30.04.2010 08:52 20,7 C 14,0 C 0,0 UV-I 0,0 C 52 % 76 % 0 % 1010,4 hPa 0,0 l/m 10,0 km/h (2 Bft) 0 min 21,3 km/h (4 Bft)
30.04.2010 08:56 20,7 C 14,0 C 0,0 UV-I 0,0 C 52 % 75 % 0 % 1010,4 hPa 0,0 l/m 11,2 km/h (2 Bft) 0 min 16,5 km/h (3 Bft)
30.04.2010 08:58 20,7 C 13,9 C 0,0 UV-I 0,0 C 52 % 75 % 0 % 1010,4 hPa 0,0 l/m 11,6 km/h (2 Bft) 0 min 37,7 km/h (5 Bft)
30.04.2010 09:00 20,7 C 13,9 C 0,1 UV-I 0,0 C 51 % 75 % 0 % 1010,4 hPa 0,0 l/m 13,3 km/h (3 Bft) 0 min 32,1 km/h (5 Bft)
30.04.2010 09:02 20,7 C 13,9 C 0,1 UV-I 0,0 C 51 % 75 % 0 % 1010,4 hPa 0,0 l/m 14,1 km/h (3 Bft) 0 min 13,3 km/h (3 Bft)
30.04.2010 09:04 20,7 C 13,9 C 0,1 UV-I 0,0 C 51 % 75 % 0 % 1010,4 hPa 0,0 l/m 13,3 km/h (3 Bft) 0 min 9,6 km/h (2 Bft)
30.04.2010 09:06 20,7 C 13,9 C 0,1 UV-I 0,0 C 51 % 75 % 0 % 1010,4 hPa 0,0 l/m 12,0 km/h (2 Bft) 0 min 7,6 km/h (2 Bft)
30.04.2010 09:08 20,7 C 13,9 C 0,1 UV-I 0,0 C 51 % 75 % 0 % 1010,4 hPa 0,0 l/m 11,6 km/h (2 Bft) 0 min 15,3 km/h (3 Bft)
30.04.2010 09:10 20,6 C 13,8 C 0,3 UV-I 0,0 C 51 % 75 % 0 % 1010,4 hPa 0,0 l/m 10,8 km/h (2 Bft) 0 min 10,4 km/h (2 Bft)
30.04.2010 09:16 20,6 C 13,8 C 0,5 UV-I 0,1 C 51 % 75 % 3 % 1010,5 hPa 0,0 l/m 7,6 km/h (2 Bft) 0 min 11,6 km/h (2 Bft)
30.04.2010 09:18 20,6 C 13,8 C 0,5 UV-I 0,1 C 51 % 75 % 3 % 1010,5 hPa 0,0 l/m 8,0 km/h (2 Bft) 0 min 13,7 km/h (3 Bft)
30.04.2010 09:20 20,6 C 13,9 C 0,9 UV-I 0,2 C 51 % 75 % 6 % 1010,5 hPa 0,0 l/m 6,8 km/h (2 Bft) 0 min 4,4 km/h (1 Bft)
30.04.2010 09:22 20,6 C 14,0 C 0,9 UV-I 0,2 C 51 % 74 % 6 % 1010,5 hPa 0,0 l/m 8,0 km/h (2 Bft) 0 min 17,7 km/h (3 Bft)
30.04.2010 09:24 20,6 C 14,0 C 0,9 UV-I 0,3 C 51 % 74 % 9 % 1010,5 hPa 0,0 l/m 9,6 km/h (2 Bft) 0 min 13,7 km/h (3 Bft)
30.04.2010 09:26 20,6 C 14,0 C 1,3 UV-I 0,4 C 51 % 74 % 11 % 1010,5 hPa 0,0 l/m 10,4 km/h (2 Bft) 0 min 28,1 km/h (4 Bft)
30.04.2010 09:28 20,6 C 14,0 C 1,3 UV-I 0,5 C 51 % 74 % 14 % 1010,5 hPa 0,0 l/m 11,2 km/h (2 Bft) 0 min 18,9 km/h (3 Bft)
30.04.2010 09:30 20,6 C 14,0 C 1,3 UV-I 0,6 C 51 % 74 % 17 % 1010,5 hPa 0,0 l/m 11,6 km/h (2 Bft) 0 min 18,5 km/h (3 Bft)
30.04.2010 09:32 20,6 C 14,0 C 1,3 UV-I 0,6 C 51 % 73 % 17 % 1010,7 hPa 0,0 l/m 13,3 km/h (3 Bft) 0 min 22,9 km/h (4 Bft)
30.04.2010 09:34 20,6 C 14,1 C 1,3 UV-I 0,6 C 51 % 73 % 17 % 1010,7 hPa 0,0 l/m 12,0 km/h (2 Bft) 0 min 12,0 km/h (2 Bft)
30.04.2010 09:38 20,6 C 14,0 C 1,2 UV-I 0,9 C 51 % 73 % 26 % 1010,7 hPa 0,0 l/m 10,4 km/h (2 Bft) 0 min 17,7 km/h (3 Bft)
30.04.2010 09:40 20,6 C 14,1 C 1,5 UV-I 1,0 C 51 % 73 % 29 % 1010,7 hPa 0,0 l/m 11,2 km/h (2 Bft) 0 min 11,6 km/h (2 Bft)
30.04.2010 09:42 20,7 C 14,1 C 1,5 UV-I 1,0 C 51 % 72 % 29 % 1010,7 hPa 0,0 l/m 11,6 km/h (2 Bft) 0 min 29,3 km/h (5 Bft)
30.04.2010 09:44 20,6 C 14,2 C 1,5 UV-I 1,3 C 51 % 72 % 37 % 1010,7 hPa 0,0 l/m 10,4 km/h (2 Bft) 0 min 12,0 km/h (2 Bft)
30.04.2010 09:46 20,6 C 14,3 C 2,0 UV-I 1,8 C 51 % 72 % 51 % 1010,7 hPa 0,0 l/m 10,8 km/h (2 Bft) 0 min 12,4 km/h (3 Bft)
30.04.2010 09:48 20,7 C 14,3 C 2,0 UV-I 2,1 C 51 % 72 % 60 % 1010,7 hPa 0,0 l/m 10,8 km/h (2 Bft) 0 min 11,2 km/h (2 Bft)
30.04.2010 09:52 20,7 C 14,4 C 1,6 UV-I 2,1 C 51 % 72 % 60 % 1010,9 hPa 0,0 l/m 11,6 km/h (2 Bft) 0 min 15,3 km/h (3 Bft)
30.04.2010 09:54 20,7 C 14,5 C 1,6 UV-I 1,7 C 51 % 72 % 49 % 1010,9 hPa 0,0 l/m 11,6 km/h (2 Bft) 0 min 12,0 km/h (2 Bft)
30.04.2010 09:56 20,7 C 14,5 C 0,7 UV-I 1,5 C 51 % 72 % 43 % 1010,9 hPa 0,0 l/m 11,6 km/h (2 Bft) 0 min 10,8 km/h (2 Bft)
30.04.2010 09:58 20,7 C 14,5 C 0,7 UV-I 1,3 C 50 % 71 % 37 % 1010,9 hPa 0,0 l/m 12,4 km/h (3 Bft) 0 min 29,7 km/h (5 Bft)
30.04.2010 10:00 20,7 C 14,4 C 0,3 UV-I 1,3 C 50 % 71 % 37 % 1010,9 hPa 0,0 l/m 12,0 km/h (2 Bft) 0 min 14,9 km/h (3 Bft)
30.04.2010 10:02 20,7 C 14,5 C 0,3 UV-I 1,0 C 50 % 71 % 29 % 1010,9 hPa 0,0 l/m 11,6 km/h (2 Bft) 0 min 10,4 km/h (2 Bft)
30.04.2010 10:04 20,7 C 14,4 C 0,3 UV-I 0,9 C 50 % 71 % 26 % 1010,9 hPa 0,0 l/m 11,6 km/h (2 Bft) 0 min 16,9 km/h (3 Bft)
30.04.2010 10:06 20,7 C 14,4 C 0,0 UV-I 0,7 C 50 % 71 % 20 % 1010,9 hPa 0,0 l/m 11,6 km/h (2 Bft) 0 min 6,8 km/h (2 Bft)
30.04.2010 10:08 20,7 C 14,4 C 0,0 UV-I 0,6 C 50 % 71 % 17 % 1010,9 hPa 0,0 l/m 12,4 km/h (3 Bft) 0 min 18,5 km/h (3 Bft)
30.04.2010 10:10 20,7 C 14,4 C 0,2 UV-I 0,4 C 50 % 71 % 11 % 1010,9 hPa 0,0 l/m 12,8 km/h (3 Bft) 0 min 10,4 km/h (2 Bft)
30.04.2010 10:12 20,7 C 14,4 C 0,2 UV-I 0,3 C 50 % 71 % 9 % 1010,8 hPa 0,0 l/m 14,5 km/h (3 Bft) 0 min 36,1 km/h (5 Bft)
30.04.2010 10:14 20,7 C 14,4 C 0,2 UV-I 0,2 C 50 % 71 % 6 % 1010,8 hPa 0,0 l/m 14,1 km/h (3 Bft) 0 min 10,8 km/h (2 Bft)
30.04.2010 10:16 20,7 C 14,3 C 0,0 UV-I 0,2 C 50 % 71 % 6 % 1010,8 hPa 0,0 l/m 14,5 km/h (3 Bft) 0 min 20,9 km/h (4 Bft)
30.04.2010 10:18 20,7 C 14,4 C 0,0 UV-I 0,0 C 50 % 71 % 0 % 1010,8 hPa 0,0 l/m 14,5 km/h (3 Bft) 0 min 9,6 km/h (2 Bft)
30.04.2010 10:20 20,7 C 14,3 C 0,4 UV-I 0,1 C 50 % 71 % 3 % 1010,8 hPa 0,0 l/m 13,7 km/h (3 Bft) 0 min 18,1 km/h (3 Bft)
30.04.2010 10:22 20,7 C 14,3 C 0,4 UV-I 0,0 C 50 % 72 % 0 % 1010,8 hPa 0,0 l/m 12,4 km/h (3 Bft) 0 min 17,7 km/h (3 Bft)
30.04.2010 10:24 20,6 C 14,3 C 0,4 UV-I 0,0 C 50 % 72 % 0 % 1010,8 hPa 0,0 l/m 11,2 km/h (2 Bft) 0 min 8,8 km/h (2 Bft)
30.04.2010 10:26 20,6 C 14,4 C 0,2 UV-I 0,0 C 50 % 72 % 0 % 1010,8 hPa 0,0 l/m 12,0 km/h (2 Bft) 0 min 14,9 km/h (3 Bft)
30.04.2010 10:30 20,6 C 14,3 C 0,8 UV-I 0,1 C 50 % 72 % 3 % 1010,8 hPa 0,0 l/m 12,0 km/h (2 Bft) 0 min 19,3 km/h (3 Bft)
30.04.2010 10:32 20,6 C 14,4 C 0,8 UV-I 0,0 C 50 % 72 % 0 % 1010,8 hPa 0,0 l/m 12,4 km/h (3 Bft) 0 min 21,3 km/h (4 Bft)
30.04.2010 10:34 20,6 C 14,3 C 0,8 UV-I 0,1 C 50 % 72 % 3 % 1010,8 hPa 0,0 l/m 12,8 km/h (3 Bft) 0 min 18,9 km/h (3 Bft)
30.04.2010 10:36 20,6 C 14,3 C 0,8 UV-I 0,2 C 50 % 72 % 6 % 1010,8 hPa 0,0 l/m 13,7 km/h (3 Bft) 0 min 20,5 km/h (4 Bft)
30.04.2010 10:38 20,6 C 14,3 C 0,8 UV-I 0,3 C 50 % 72 % 9 % 1010,8 hPa 0,0 l/m 13,7 km/h (3 Bft) 0 min 22,9 km/h (4 Bft)
30.04.2010 10:40 20,6 C 14,3 C 1,1 UV-I 0,3 C 50 % 72 % 9 % 1010,8 hPa 0,0 l/m 14,1 km/h (3 Bft) 0 min 13,7 km/h (3 Bft)
30.04.2010 10:42 20,6 C 14,3 C 1,1 UV-I 0,5 C 50 % 73 % 14 % 1010,8 hPa 0,0 l/m 13,7 km/h (3 Bft) 0 min 16,1 km/h (3 Bft)
30.04.2010 10:46 20,7 C 14,5 C 1,0 UV-I 0,5 C 50 % 73 % 14 % 1010,8 hPa 0,0 l/m 11,2 km/h (2 Bft) 0 min 8,4 km/h (2 Bft)
30.04.2010 10:52 20,6 C 14,4 C 1,1 UV-I 0,7 C 50 % 73 % 20 % 1010,8 hPa 0,0 l/m 10,4 km/h (2 Bft) 0 min 23,3 km/h (4 Bft)
30.04.2010 10:54 20,7 C 14,4 C 1,1 UV-I 0,7 C 50 % 73 % 20 % 1010,8 hPa 0,0 l/m 10,4 km/h (2 Bft) 0 min 14,1 km/h (3 Bft)
30.04.2010 10:56 20,7 C 14,4 C 0,8 UV-I 0,7 C 50 % 73 % 20 % 1010,8 hPa 0,0 l/m 11,2 km/h (2 Bft) 0 min 15,3 km/h (3 Bft)
30.04.2010 10:58 20,7 C 14,4 C 0,8 UV-I 0,7 C 50 % 73 % 20 % 1010,8 hPa 0,0 l/m 10,8 km/h (2 Bft) 0 min 8,0 km/h (2 Bft)
30.04.2010 11:00 20,6 C 14,4 C 1,1 UV-I 0,7 C 50 % 73 % 20 % 1010,8 hPa 0,0 l/m 10,4 km/h (2 Bft) 0 min 9,2 km/h (2 Bft)
30.04.2010 11:02 20,6 C 14,4 C 1,1 UV-I 0,7 C 50 % 73 % 20 % 1010,8 hPa 0,0 l/m 10,4 km/h (2 Bft) 0 min 12,8 km/h (3 Bft)
30.04.2010 11:04 20,6 C 14,4 C 1,1 UV-I 0,7 C 50 % 73 % 20 % 1010,8 hPa 0,0 l/m 11,2 km/h (2 Bft) 0 min 17,7 km/h (3 Bft)
30.04.2010 11:08 20,6 C 14,4 C 0,8 UV-I 0,6 C 50 % 73 % 17 % 1010,8 hPa 0,0 l/m 12,8 km/h (3 Bft) 0 min 10,4 km/h (2 Bft)
30.04.2010 11:10 20,7 C 14,5 C 0,5 UV-I 0,5 C 50 % 73 % 14 % 1010,8 hPa 0,0 l/m 12,8 km/h (3 Bft) 0 min 18,1 km/h (3 Bft)
30.04.2010 11:12 20,6 C 14,5 C 0,5 UV-I 0,5 C 50 % 73 % 14 % 1011,3 hPa 0,0 l/m 12,8 km/h (3 Bft) 0 min 10,8 km/h (2 Bft)
30.04.2010 11:14 20,6 C 14,5 C 0,5 UV-I 0,6 C 50 % 73 % 17 % 1011,3 hPa 0,0 l/m 11,6 km/h (2 Bft) 0 min 12,0 km/h (2 Bft)
30.04.2010 11:16 20,7 C 14,5 C 1,2 UV-I 0,7 C 50 % 73 % 20 % 1011,3 hPa 0,0 l/m 11,2 km/h (2 Bft) 0 min 12,4 km/h (3 Bft)
30.04.2010 11:18 20,7 C 14,6 C 1,2 UV-I 0,7 C 50 % 73 % 20 % 1011,3 hPa 0,0 l/m 10,0 km/h (2 Bft) 0 min 16,9 km/h (3 Bft)
30.04.2010 11:20 20,7 C 14,5 C 1,3 UV-I 0,8 C 50 % 73 % 23 % 1011,3 hPa 0,0 l/m 9,6 km/h (2 Bft) 0 min 13,7 km/h (3 Bft)
30.04.2010 11:24 20,7 C 14,5 C 1,3 UV-I 0,8 C 50 % 72 % 23 % 1011,3 hPa 0,0 l/m 10,4 km/h (2 Bft) 0 min 17,3 km/h (3 Bft)
30.04.2010 11:26 20,7 C 14,5 C 0,7 UV-I 0,7 C 50 % 73 % 20 % 1011,3 hPa 0,0 l/m 10,8 km/h (2 Bft) 0 min 15,3 km/h (3 Bft)
30.04.2010 11:28 20,7 C 14,5 C 0,7 UV-I 0,6 C 50 % 73 % 17 % 1011,3 hPa 0,0 l/m 11,2 km/h (2 Bft) 0 min 24,9 km/h (4 Bft)
30.04.2010 11:30 20,7 C 14,6 C 0,8 UV-I 0,5 C 50 % 73 % 14 % 1011,3 hPa 0,0 l/m 10,8 km/h (2 Bft) 0 min 24,1 km/h (4 Bft)
30.04.2010 11:32 20,7 C 14,5 C 0,8 UV-I 0,5 C 50 % 73 % 14 % 1011,4 hPa 0,0 l/m 11,2 km/h (2 Bft) 0 min 6,0 km/h (2 Bft)
30.04.2010 11:34 20,7 C 14,5 C 0,8 UV-I 0,5 C 50 % 73 % 14 % 1011,4 hPa 0,0 l/m 10,8 km/h (2 Bft) 0 min 22,9 km/h (4 Bft)
30.04.2010 11:36 20,7 C 14,5 C 0,5 UV-I 0,5 C 50 % 73 % 14 % 1011,4 hPa 0,0 l/m 10,4 km/h (2 Bft) 0 min 8,4 km/h (2 Bft)
30.04.2010 11:38 20,7 C 14,5 C 0,5 UV-I 0,5 C 50 % 73 % 14 % 1011,4 hPa 0,0 l/m 10,0 km/h (2 Bft) 0 min 15,3 km/h (3 Bft)
30.04.2010 11:40 20,7 C 14,5 C 1,2 UV-I 0,5 C 50 % 73 % 14 % 1011,4 hPa 0,0 l/m 10,0 km/h (2 Bft) 0 min 15,3 km/h (3 Bft)
30.04.2010 11:42 20,7 C 14,5 C 1,2 UV-I 0,6 C 50 % 73 % 17 % 1011,4 hPa 0,0 l/m 9,6 km/h (2 Bft) 0 min 21,3 km/h (4 Bft)
30.04.2010 11:44 20,7 C 14,7 C 1,2 UV-I 0,5 C 50 % 73 % 14 % 1011,4 hPa 0,0 l/m 11,2 km/h (2 Bft) 0 min 11,2 km/h (2 Bft)
30.04.2010 11:46 20,7 C 14,7 C 1,5 UV-I 0,6 C 50 % 73 % 17 % 1011,4 hPa 0,0 l/m 10,8 km/h (2 Bft) 0 min 16,1 km/h (3 Bft)
30.04.2010 11:48 20,7 C 14,7 C 1,5 UV-I 0,7 C 50 % 73 % 20 % 1011,4 hPa 0,0 l/m 10,4 km/h (2 Bft) 0 min 6,0 km/h (2 Bft)
30.04.2010 11:50 20,7 C 14,7 C 2,2 UV-I 1,0 C 50 % 73 % 29 % 1011,4 hPa 0,0 l/m 10,0 km/h (2 Bft) 0 min 11,6 km/h (2 Bft)
30.04.2010 11:52 20,7 C 14,7 C 2,2 UV-I 1,1 C 50 % 73 % 31 % 1011,8 hPa 0,0 l/m 10,8 km/h (2 Bft) 0 min 21,3 km/h (4 Bft)
30.04.2010 11:54 20,7 C 14,8 C 2,2 UV-I 1,1 C 50 % 73 % 31 % 1011,8 hPa 0,0 l/m 9,6 km/h (2 Bft) 0 min 7,2 km/h (2 Bft)
30.04.2010 11:56 20,7 C 14,9 C 2,3 UV-I 1,3 C 50 % 72 % 37 % 1011,8 hPa 0,0 l/m 10,8 km/h (2 Bft) 0 min 42,6 km/h (6 Bft)
30.04.2010 11:58 20,7 C 14,8 C 2,3 UV-I 1,5 C 50 % 72 % 43 % 1011,8 hPa 0,0 l/m 11,2 km/h (2 Bft) 0 min 16,1 km/h (3 Bft)
30.04.2010 12:02 20,8 C 14,8 C 2,3 UV-I 1,6 C 50 % 72 % 46 % 1011,8 hPa 0,0 l/m 12,8 km/h (3 Bft) 0 min 12,0 km/h (2 Bft)
30.04.2010 12:04 20,8 C 14,8 C 2,3 UV-I 1,6 C 50 % 72 % 46 % 1011,8 hPa 0,0 l/m 12,8 km/h (3 Bft) 0 min 12,0 km/h (2 Bft)
30.04.2010 12:06 20,8 C 15,1 C 1,7 UV-I 1,2 C 50 % 71 % 34 % 1011,8 hPa 0,0 l/m 13,3 km/h (3 Bft) 0 min 12,4 km/h (3 Bft)
30.04.2010 12:08 20,8 C 15,1 C 1,7 UV-I 1,1 C 50 % 71 % 31 % 1011,8 hPa 0,0 l/m 12,4 km/h (3 Bft) 0 min 24,5 km/h (4 Bft)
30.04.2010 12:10 20,8 C 15,0 C 1,1 UV-I 1,0 C 50 % 71 % 29 % 1011,8 hPa 0,0 l/m 12,4 km/h (3 Bft) 0 min 16,5 km/h (3 Bft)
30.04.2010 12:12 20,8 C 14,9 C 1,1 UV-I 1,0 C 50 % 72 % 29 % 1011,5 hPa 0,0 l/m 10,8 km/h (2 Bft) 0 min 9,2 km/h (2 Bft)
30.04.2010 12:14 20,8 C 14,9 C 1,1 UV-I 0,8 C 50 % 72 % 23 % 1011,5 hPa 0,0 l/m 10,8 km/h (2 Bft) 0 min 15,7 km/h (3 Bft)
30.04.2010 12:16 20,8 C 14,9 C 0,4 UV-I 0,7 C 50 % 72 % 20 % 1011,5 hPa 0,0 l/m 11,2 km/h (2 Bft) 0 min 25,3 km/h (4 Bft)
30.04.2010 12:18 20,8 C 14,9 C 0,4 UV-I 0,6 C 50 % 72 % 17 % 1011,5 hPa 0,0 l/m 11,2 km/h (2 Bft) 0 min 20,1 km/h (4 Bft)
30.04.2010 12:20 20,8 C 14,9 C 0,2 UV-I 0,4 C 50 % 72 % 11 % 1011,5 hPa 0,0 l/m 9,6 km/h (2 Bft) 0 min 4,8 km/h (1 Bft)
30.04.2010 12:22 20,8 C 14,9 C 0,2 UV-I 0,3 C 50 % 72 % 9 % 1011,5 hPa 0,0 l/m 11,2 km/h (2 Bft) 0 min 14,9 km/h (3 Bft)
30.04.2010 12:24 20,8 C 14,9 C 0,2 UV-I 0,2 C 50 % 71 % 6 % 1011,5 hPa 0,0 l/m 11,6 km/h (2 Bft) 0 min 18,5 km/h (3 Bft)
30.04.2010 12:26 20,8 C 14,9 C 0,5 UV-I 0,2 C 50 % 72 % 6 % 1011,5 hPa 0,0 l/m 11,2 km/h (2 Bft) 0 min 9,6 km/h (2 Bft)
30.04.2010 12:28 20,8 C 14,9 C 0,5 UV-I 0,1 C 50 % 71 % 3 % 1011,5 hPa 0,0 l/m 11,2 km/h (2 Bft) 0 min 24,1 km/h (4 Bft)
30.04.2010 12:30 20,7 C 14,9 C 0,6 UV-I 0,1 C 50 % 71 % 3 % 1011,5 hPa 0,0 l/m 12,0 km/h (2 Bft) 0 min 25,3 km/h (4 Bft)
30.04.2010 12:32 20,7 C 14,8 C 0,6 UV-I 0,2 C 50 % 71 % 6 % 1011,6 hPa 0,0 l/m 12,8 km/h (3 Bft) 0 min 20,5 km/h (4 Bft)
30.04.2010 12:34 20,7 C 14,8 C 0,6 UV-I 0,3 C 50 % 71 % 9 % 1011,6 hPa 0,0 l/m 12,8 km/h (3 Bft) 0 min 17,3 km/h (3 Bft)
30.04.2010 12:36 20,7 C 14,9 C 0,9 UV-I 0,2 C 50 % 71 % 6 % 1011,6 hPa 0,0 l/m 12,8 km/h (3 Bft) 0 min 17,3 km/h (3 Bft)
30.04.2010 12:38 20,7 C 14,8 C 0,9 UV-I 0,4 C 50 % 71 % 11 % 1011,6 hPa 0,0 l/m 12,4 km/h (3 Bft) 0 min 8,8 km/h (2 Bft)
30.04.2010 12:40 20,7 C 14,9 C 1,5 UV-I 0,4 C 50 % 71 % 11 % 1011,6 hPa 0,0 l/m 12,0 km/h (2 Bft) 0 min 8,4 km/h (2 Bft)
30.04.2010 12:42 20,7 C 14,9 C 1,5 UV-I 0,6 C 50 % 71 % 17 % 1011,6 hPa 0,0 l/m 11,6 km/h (2 Bft) 0 min 14,9 km/h (3 Bft)
30.04.2010 12:44 20,8 C 15,0 C 1,5 UV-I 0,7 C 50 % 71 % 20 % 1011,6 hPa 0,0 l/m 10,8 km/h (2 Bft) 0 min 10,4 km/h (2 Bft)
30.04.2010 12:46 20,8 C 15,1 C 2,2 UV-I 0,8 C 50 % 71 % 23 % 1011,6 hPa 0,0 l/m 10,4 km/h (2 Bft) 0 min 8,8 km/h (2 Bft)
30.04.2010 12:48 20,8 C 15,1 C 2,2 UV-I 1,1 C 50 % 71 % 31 % 1011,6 hPa 0,0 l/m 10,8 km/h (2 Bft) 0 min 26,9 km/h (4 Bft)
30.04.2010 12:50 20,8 C 15,1 C 3,2 UV-I 1,5 C 50 % 70 % 43 % 1011,6 hPa 0,0 l/m 10,4 km/h (2 Bft) 0 min 7,6 km/h (2 Bft)
30.04.2010 12:52 20,8 C 15,2 C 3,2 UV-I 1,6 C 50 % 71 % 46 % 1011,4 hPa 0,0 l/m 10,8 km/h (2 Bft) 0 min 20,9 km/h (4 Bft)
30.04.2010 12:54 20,8 C 15,3 C 3,2 UV-I 1,8 C 50 % 71 % 51 % 1011,4 hPa 0,0 l/m 10,4 km/h (2 Bft) 0 min 20,9 km/h (4 Bft)
30.04.2010 12:56 20,8 C 15,3 C 2,7 UV-I 2,0 C 50 % 70 % 57 % 1011,4 hPa 0,0 l/m 10,0 km/h (2 Bft) 0 min 24,9 km/h (4 Bft)
30.04.2010 12:58 20,8 C 15,3 C 2,7 UV-I 2,1 C 50 % 70 % 60 % 1011,4 hPa 0,0 l/m 11,2 km/h (2 Bft) 0 min 39,3 km/h (6 Bft)
30.04.2010 13:02 20,8 C 15,5 C 2,4 UV-I 1,9 C 50 % 69 % 54 % 1011,4 hPa 0,0 l/m 12,0 km/h (2 Bft) 0 min 21,3 km/h (4 Bft)
30.04.2010 13:04 20,8 C 15,5 C 2,4 UV-I 2,0 C 50 % 68 % 57 % 1011,4 hPa 0,0 l/m 12,8 km/h (3 Bft) 0 min 12,8 km/h (3 Bft)
30.04.2010 13:06 20,8 C 15,5 C 3,0 UV-I 2,1 C 50 % 68 % 60 % 1011,4 hPa 0,0 l/m 14,1 km/h (3 Bft) 0 min 25,3 km/h (4 Bft)
30.04.2010 13:08 20,8 C 15,6 C 3,0 UV-I 2,1 C 50 % 67 % 60 % 1011,4 hPa 0,0 l/m 15,3 km/h (3 Bft) 0 min 30,1 km/h (5 Bft)
30.04.2010 13:10 20,8 C 15,7 C 3,5 UV-I 2,0 C 50 % 67 % 57 % 1011,4 hPa 0,0 l/m 14,9 km/h (3 Bft) 0 min 18,1 km/h (3 Bft)
30.04.2010 13:12 20,9 C 15,7 C 3,5 UV-I 2,3 C 50 % 67 % 66 % 1011,6 hPa 0,0 l/m 15,3 km/h (3 Bft) 0 min 19,3 km/h (3 Bft)
30.04.2010 13:16 20,9 C 15,9 C 5,1 UV-I 2,8 C 50 % 67 % 80 % 1011,6 hPa 0,0 l/m 14,1 km/h (3 Bft) 0 min 18,1 km/h (3 Bft)
30.04.2010 13:18 20,9 C 16,0 C 5,1 UV-I 3,1 C 50 % 67 % 89 % 1011,6 hPa 0,0 l/m 12,8 km/h (3 Bft) 2 min 24,1 km/h (4 Bft)
30.04.2010 13:22 21,0 C 16,3 C 5,4 UV-I 3,4 C 50 % 65 % 97 % 1011,6 hPa 0,0 l/m 13,7 km/h (3 Bft) 2 min 10,4 km/h (2 Bft)
30.04.2010 13:24 21,0 C 16,2 C 5,4 UV-I 3,7 C 50 % 64 % 100 % 1011,6 hPa 0,0 l/m 14,1 km/h (3 Bft) 2 min 21,7 km/h (4 Bft)
30.04.2010 13:26 21,0 C 16,3 C 4,7 UV-I 3,7 C 50 % 63 % 100 % 1011,6 hPa 0,0 l/m 14,1 km/h (3 Bft) 2 min 27,3 km/h (4 Bft)
30.04.2010 13:28 21,1 C 16,4 C 4,7 UV-I 3,4 C 50 % 63 % 97 % 1011,6 hPa 0,0 l/m 15,3 km/h (3 Bft) 2 min 22,9 km/h (4 Bft)
30.04.2010 13:30 21,1 C 16,5 C 4,8 UV-I 3,3 C 49 % 62 % 94 % 1011,6 hPa 0,0 l/m 14,9 km/h (3 Bft) 2 min 16,1 km/h (3 Bft)
30.04.2010 13:36 21,2 C 16,7 C 5,2 UV-I 3,3 C 49 % 62 % 94 % 1010,4 hPa 0,0 l/m 14,5 km/h (3 Bft) 2 min 33,3 km/h (5 Bft)
30.04.2010 13:38 21,2 C 16,7 C 5,2 UV-I 3,4 C 49 % 61 % 97 % 1010,4 hPa 0,0 l/m 14,5 km/h (3 Bft) 2 min 23,7 km/h (4 Bft)
30.04.2010 13:42 21,2 C 16,9 C 5,3 UV-I 3,6 C 49 % 60 % 100 % 1010,4 hPa 0,0 l/m 13,7 km/h (3 Bft) 2 min 24,9 km/h (4 Bft)
30.04.2010 13:44 21,2 C 16,9 C 5,3 UV-I 3,5 C 49 % 60 % 100 % 1010,4 hPa 0,0 l/m 13,3 km/h (3 Bft) 2 min 11,2 km/h (2 Bft)
30.04.2010 13:46 21,3 C 17,1 C 4,3 UV-I 3,3 C 49 % 59 % 94 % 1010,4 hPa 0,0 l/m 13,3 km/h (3 Bft) 2 min 16,1 km/h (3 Bft)
30.04.2010 13:48 21,2 C 17,1 C 4,3 UV-I 3,3 C 48 % 59 % 94 % 1010,4 hPa 0,0 l/m 12,8 km/h (3 Bft) 2 min 13,7 km/h (3 Bft)
30.04.2010 13:50 21,2 C 17,2 C 4,3 UV-I 3,2 C 48 % 59 % 91 % 1010,4 hPa 0,0 l/m 11,2 km/h (2 Bft) 2 min 5,6 km/h (1 Bft)
30.04.2010 13:54 21,4 C 17,2 C 4,3 UV-I 3,4 C 48 % 57 % 97 % 1012,3 hPa 0,0 l/m 12,0 km/h (2 Bft) 2 min 20,9 km/h (4 Bft)
30.04.2010 13:56 21,4 C 17,3 C 4,8 UV-I 3,2 C 48 % 56 % 91 % 1012,3 hPa 0,0 l/m 12,4 km/h (3 Bft) 2 min 12,0 km/h (2 Bft)
30.04.2010 13:58 21,4 C 17,3 C 4,8 UV-I 3,1 C 48 % 56 % 89 % 1012,3 hPa 0,0 l/m 12,0 km/h (2 Bft) 2 min 14,9 km/h (3 Bft)
30.04.2010 14:02 21,4 C 17,4 C 4,8 UV-I 3,0 C 48 % 55 % 86 % 1012,3 hPa 0,0 l/m 14,5 km/h (3 Bft) 2 min 14,1 km/h (3 Bft)
30.04.2010 14:04 21,5 C 17,5 C 4,8 UV-I 2,8 C 48 % 56 % 80 % 1012,3 hPa 0,0 l/m 13,3 km/h (3 Bft) 0 min 8,8 km/h (2 Bft)
30.04.2010 14:06 21,5 C 17,5 C 4,4 UV-I 2,9 C 47 % 56 % 83 % 1012,3 hPa 0,0 l/m 12,0 km/h (2 Bft) 2 min 13,7 km/h (3 Bft)
30.04.2010 14:08 21,5 C 17,5 C 4,4 UV-I 2,9 C 47 % 55 % 83 % 1012,3 hPa 0,0 l/m 12,4 km/h (3 Bft) 2 min 15,7 km/h (3 Bft)
30.04.2010 14:10 21,5 C 17,5 C 4,4 UV-I 2,8 C 47 % 55 % 80 % 1012,3 hPa 0,0 l/m 13,3 km/h (3 Bft) 0 min 28,1 km/h (4 Bft)
30.04.2010 14:12 21,5 C 17,5 C 4,4 UV-I 2,7 C 47 % 54 % 77 % 1012,3 hPa 0,0 l/m 12,0 km/h (2 Bft) 0 min 7,6 km/h (2 Bft)
30.04.2010 14:14 21,5 C 17,6 C 4,4 UV-I 2,5 C 47 % 54 % 71 % 1012,3 hPa 0,0 l/m 12,0 km/h (2 Bft) 0 min 16,5 km/h (3 Bft)
30.04.2010 14:16 21,6 C 17,6 C 3,6 UV-I 2,4 C 47 % 54 % 69 % 1012,3 hPa 0,0 l/m 12,4 km/h (3 Bft) 0 min 10,4 km/h (2 Bft)
30.04.2010 14:18 21,6 C 17,6 C 3,6 UV-I 2,5 C 47 % 54 % 71 % 1012,3 hPa 0,0 l/m 12,0 km/h (2 Bft) 0 min 15,3 km/h (3 Bft)
30.04.2010 14:20 21,6 C 17,6 C 5,3 UV-I 2,7 C 47 % 54 % 77 % 1012,3 hPa 0,0 l/m 12,0 km/h (2 Bft) 0 min 18,9 km/h (3 Bft)
30.04.2010 14:22 21,6 C 17,7 C 5,3 UV-I 2,7 C 47 % 53 % 77 % 1012,3 hPa 0,0 l/m 11,2 km/h (2 Bft) 0 min 21,7 km/h (4 Bft)
30.04.2010 14:24 21,6 C 17,7 C 5,3 UV-I 2,8 C 47 % 53 % 80 % 1012,3 hPa 0,0 l/m 12,0 km/h (2 Bft) 0 min 17,3 km/h (3 Bft)
30.04.2010 14:26 21,6 C 17,7 C 5,1 UV-I 2,7 C 46 % 53 % 77 % 1012,3 hPa 0,0 l/m 12,4 km/h (3 Bft) 0 min 20,1 km/h (4 Bft)
30.04.2010 14:28 21,6 C 17,9 C 5,1 UV-I 2,5 C 46 % 53 % 71 % 1012,3 hPa 0,0 l/m 13,7 km/h (3 Bft) 0 min 12,4 km/h (3 Bft)
30.04.2010 14:34 21,6 C 17,9 C 4,4 UV-I 2,3 C 46 % 53 % 66 % 1012,5 hPa 0,0 l/m 14,9 km/h (3 Bft) 0 min 49,0 km/h (6 Bft)
30.04.2010 14:36 21,7 C 17,8 C 5,6 UV-I 2,5 C 46 % 54 % 71 % 1012,5 hPa 0,0 l/m 14,1 km/h (3 Bft) 0 min 10,4 km/h (2 Bft)
30.04.2010 14:38 21,7 C 17,8 C 5,6 UV-I 2,6 C 46 % 53 % 74 % 1012,5 hPa 0,0 l/m 13,7 km/h (3 Bft) 0 min 14,5 km/h (3 Bft)
30.04.2010 14:40 21,7 C 17,8 C 3,9 UV-I 2,6 C 46 % 53 % 74 % 1012,5 hPa 0,0 l/m 12,0 km/h (2 Bft) 0 min 14,1 km/h (3 Bft)
30.04.2010 14:42 21,7 C 17,9 C 3,9 UV-I 2,3 C 46 % 53 % 66 % 1012,5 hPa 0,0 l/m 10,8 km/h (2 Bft) 0 min 11,2 km/h (2 Bft)
30.04.2010 14:44 21,7 C 17,9 C 3,9 UV-I 2,1 C 46 % 53 % 60 % 1012,5 hPa 0,0 l/m 10,4 km/h (2 Bft) 0 min 10,4 km/h (2 Bft)
30.04.2010 14:46 21,7 C 17,9 C 3,7 UV-I 1,9 C 46 % 53 % 54 % 1012,5 hPa 0,0 l/m 9,6 km/h (2 Bft) 0 min 9,2 km/h (2 Bft)
30.04.2010 14:48 21,7 C 17,8 C 3,7 UV-I 2,0 C 46 % 53 % 57 % 1012,5 hPa 0,0 l/m 10,4 km/h (2 Bft) 0 min 13,7 km/h (3 Bft)
30.04.2010 14:52 21,8 C 18,0 C 9,2 UV-I 2,8 C 46 % 53 % 80 % 1012,0 hPa 0,0 l/m 10,4 km/h (2 Bft) 0 min 11,2 km/h (2 Bft)
30.04.2010 14:54 21,8 C 18,0 C 9,2 UV-I 3,1 C 46 % 53 % 89 % 1012,0 hPa 0,0 l/m 10,0 km/h (2 Bft) 2 min 20,5 km/h (4 Bft)
30.04.2010 14:56 21,9 C 18,1 C 5,7 UV-I 3,2 C 46 % 51 % 91 % 1012,0 hPa 0,0 l/m 11,2 km/h (2 Bft) 2 min 22,5 km/h (4 Bft)
30.04.2010 14:58 21,9 C 18,0 C 5,7 UV-I 2,9 C 45 % 51 % 83 % 1012,0 hPa 0,0 l/m 11,6 km/h (2 Bft) 2 min 18,5 km/h (3 Bft)
30.04.2010 15:00 21,9 C 18,0 C 2,0 UV-I 2,4 C 45 % 51 % 69 % 1012,0 hPa 0,0 l/m 12,4 km/h (3 Bft) 0 min 14,5 km/h (3 Bft)
30.04.2010 15:02 21,9 C 18,1 C 2,0 UV-I 1,8 C 45 % 51 % 51 % 1012,0 hPa 0,0 l/m 11,6 km/h (2 Bft) 0 min 8,0 km/h (2 Bft)
30.04.2010 15:06 21,9 C 17,9 C 1,2 UV-I 1,2 C 45 % 51 % 34 % 1012,0 hPa 0,0 l/m 12,0 km/h (2 Bft) 0 min 14,9 km/h (3 Bft)
30.04.2010 15:08 21,9 C 17,9 C 1,2 UV-I 0,9 C 45 % 51 % 26 % 1012,0 hPa 0,0 l/m 10,8 km/h (2 Bft) 0 min 9,6 km/h (2 Bft)
30.04.2010 15:10 21,9 C 17,8 C 1,0 UV-I 0,7 C 45 % 50 % 20 % 1012,0 hPa 0,0 l/m 11,2 km/h (2 Bft) 0 min 24,1 km/h (4 Bft)
30.04.2010 15:12 21,9 C 17,7 C 1,0 UV-I 0,6 C 45 % 51 % 17 % 1012,6 hPa 0,0 l/m 11,2 km/h (2 Bft) 0 min 7,6 km/h (2 Bft)
30.04.2010 15:14 21,9 C 17,6 C 1,0 UV-I 0,6 C 45 % 51 % 17 % 1012,6 hPa 0,0 l/m 11,6 km/h (2 Bft) 0 min 18,1 km/h (3 Bft)
30.04.2010 15:18 21,9 C 17,7 C 8,0 UV-I 1,2 C 45 % 52 % 34 % 1012,6 hPa 0,0 l/m 11,6 km/h (2 Bft) 0 min 16,5 km/h (3 Bft)
30.04.2010 15:21 22,0 C 17,9 C 8,0 UV-I 1,6 C 45 % 53 % 46 % 1012,6 hPa 0,0 l/m 11,2 km/h (2 Bft) 0 min 14,5 km/h (3 Bft)
30.04.2010 15:22 22,0 C 17,9 C 8,0 UV-I 1,6 C 45 % 53 % 46 % 1012,6 hPa 0,0 l/m 11,2 km/h (2 Bft) 0 min 14,5 km/h (3 Bft)
30.04.2010 15:24 22,0 C 17,9 C 8,0 UV-I 2,0 C 45 % 53 % 57 % 1012,6 hPa 0,0 l/m 11,2 km/h (2 Bft) 0 min 14,5 km/h (3 Bft)
30.04.2010 15:26 22,0 C 18,1 C 7,7 UV-I 2,1 C 45 % 53 % 60 % 1012,6 hPa 0,0 l/m 11,2 km/h (2 Bft) 0 min 9,6 km/h (2 Bft)
30.04.2010 15:28 22,0 C 18,0 C 7,7 UV-I 2,4 C 45 % 53 % 69 % 1012,6 hPa 0,0 l/m 10,4 km/h (2 Bft) 0 min 11,6 km/h (2 Bft)
30.04.2010 15:30 22,0 C 18,0 C 1,9 UV-I 2,3 C 45 % 53 % 66 % 1012,6 hPa 0,0 l/m 10,8 km/h (2 Bft) 0 min 17,7 km/h (3 Bft)
30.04.2010 15:32 22,0 C 18,0 C 1,9 UV-I 1,8 C 44 % 52 % 51 % 1013,0 hPa 0,0 l/m 9,6 km/h (2 Bft) 0 min 12,8 km/h (3 Bft)
30.04.2010 15:34 22,0 C 17,9 C 1,9 UV-I 1,5 C 44 % 52 % 43 % 1013,0 hPa 0,0 l/m 10,0 km/h (2 Bft) 0 min 12,0 km/h (2 Bft)
30.04.2010 15:36 22,0 C 17,9 C 0,3 UV-I 1,2 C 44 % 52 % 34 % 1013,0 hPa 0,0 l/m 10,4 km/h (2 Bft) 0 min 17,3 km/h (3 Bft)
30.04.2010 15:38 22,0 C 17,6 C 0,3 UV-I 1,1 C 44 % 52 % 31 % 1013,0 hPa 0,0 l/m 10,8 km/h (2 Bft) 0 min 6,8 km/h (2 Bft)
30.04.2010 15:40 22,0 C 17,6 C 3,4 UV-I 0,9 C 44 % 53 % 26 % 1013,0 hPa 0,0 l/m 10,4 km/h (2 Bft) 0 min 19,7 km/h (3 Bft)
30.04.2010 15:42 22,0 C 17,6 C 3,4 UV-I 1,1 C 44 % 53 % 31 % 1013,0 hPa 0,0 l/m 10,0 km/h (2 Bft) 0 min 6,4 km/h (2 Bft)
30.04.2010 15:44 22,1 C 17,8 C 3,4 UV-I 1,8 C 44 % 53 % 51 % 1013,0 hPa 0,0 l/m 10,4 km/h (2 Bft) 0 min 18,5 km/h (3 Bft)
30.04.2010 15:46 22,2 C 17,9 C 9,0 UV-I 2,4 C 44 % 52 % 69 % 1013,0 hPa 0,0 l/m 10,0 km/h (2 Bft) 0 min 14,9 km/h (3 Bft)
30.04.2010 15:48 22,2 C 17,9 C 9,0 UV-I 2,7 C 44 % 53 % 77 % 1013,0 hPa 0,0 l/m 8,8 km/h (2 Bft) 0 min 12,8 km/h (3 Bft)
30.04.2010 15:50 22,2 C 18,1 C 7,9 UV-I 2,7 C 44 % 52 % 77 % 1013,0 hPa 0,0 l/m 9,6 km/h (2 Bft) 0 min 15,3 km/h (3 Bft)
30.04.2010 15:52 22,3 C 18,1 C 7,9 UV-I 3,1 C 44 % 52 % 89 % 1013,6 hPa 0,0 l/m 10,4 km/h (2 Bft) 2 min 24,5 km/h (4 Bft)
30.04.2010 15:54 22,4 C 18,2 C 7,9 UV-I 3,2 C 44 % 51 % 91 % 1013,6 hPa 0,0 l/m 10,8 km/h (2 Bft) 2 min 18,1 km/h (3 Bft)
30.04.2010 15:56 22,4 C 18,2 C 7,9 UV-I 3,5 C 44 % 51 % 100 % 1013,6 hPa 0,0 l/m 11,6 km/h (2 Bft) 2 min 18,5 km/h (3 Bft)
30.04.2010 15:58 22,4 C 18,1 C 7,9 UV-I 3,3 C 44 % 51 % 94 % 1013,6 hPa 0,0 l/m 10,8 km/h (2 Bft) 2 min 11,2 km/h (2 Bft)
30.04.2010 16:00 22,4 C 18,1 C 4,9 UV-I 3,0 C 43 % 51 % 86 % 1013,6 hPa 0,0 l/m 11,6 km/h (2 Bft) 2 min 23,3 km/h (4 Bft)
30.04.2010 16:02 22,5 C 18,0 C 4,9 UV-I 2,7 C 43 % 52 % 77 % 1013,6 hPa 0,0 l/m 11,2 km/h (2 Bft) 0 min 11,6 km/h (2 Bft)
30.04.2010 16:04 22,5 C 18,1 C 4,9 UV-I 2,2 C 43 % 51 % 63 % 1013,6 hPa 0,0 l/m 11,6 km/h (2 Bft) 0 min 23,7 km/h (4 Bft)
30.04.2010 16:06 22,4 C 17,9 C 0,6 UV-I 1,9 C 43 % 51 % 54 % 1013,6 hPa 0,0 l/m 11,6 km/h (2 Bft) 0 min 13,7 km/h (3 Bft)
30.04.2010 16:08 22,5 C 17,9 C 0,6 UV-I 1,3 C 42 % 51 % 37 % 1013,6 hPa 0,0 l/m 12,4 km/h (3 Bft) 0 min 15,3 km/h (3 Bft)
30.04.2010 16:10 22,4 C 17,9 C 0,5 UV-I 0,8 C 42 % 51 % 23 % 1013,6 hPa 0,0 l/m 12,8 km/h (3 Bft) 0 min 13,3 km/h (3 Bft)
30.04.2010 16:12 22,4 C 17,7 C 0,5 UV-I 0,7 C 42 % 52 % 20 % 1016,6 hPa 0,0 l/m 11,6 km/h (2 Bft) 0 min 6,4 km/h (2 Bft)
30.04.2010 16:14 22,4 C 17,6 C 0,5 UV-I 0,6 C 42 % 52 % 17 % 1016,6 hPa 0,0 l/m 11,2 km/h (2 Bft) 0 min 12,0 km/h (2 Bft)
30.04.2010 16:16 22,4 C 17,6 C 1,7 UV-I 0,5 C 42 % 52 % 14 % 1016,6 hPa 0,0 l/m 10,0 km/h (2 Bft) 0 min 18,1 km/h (3 Bft)
30.04.2010 16:18 22,4 C 17,6 C 1,7 UV-I 0,5 C 43 % 52 % 14 % 1016,6 hPa 0,0 l/m 9,2 km/h (2 Bft) 0 min 11,2 km/h (2 Bft)
30.04.2010 16:20 22,4 C 17,6 C 3,3 UV-I 0,6 C 42 % 52 % 17 % 1016,6 hPa 0,0 l/m 8,8 km/h (2 Bft) 0 min 11,2 km/h (2 Bft)
30.04.2010 16:22 22,4 C 17,7 C 3,3 UV-I 0,7 C 43 % 52 % 20 % 1016,6 hPa 0,0 l/m 8,4 km/h (2 Bft) 0 min 9,6 km/h (2 Bft)
30.04.2010 16:24 22,4 C 17,7 C 3,3 UV-I 0,8 C 43 % 52 % 23 % 1016,6 hPa 0,0 l/m 8,8 km/h (2 Bft) 0 min 10,4 km/h (2 Bft)
30.04.2010 16:26 22,4 C 17,6 C 1,6 UV-I 0,9 C 43 % 52 % 26 % 1016,6 hPa 0,0 l/m 8,8 km/h (2 Bft) 0 min 10,4 km/h (2 Bft)
30.04.2010 16:28 22,4 C 17,7 C 1,6 UV-I 0,7 C 43 % 52 % 20 % 1016,6 hPa 0,0 l/m 8,0 km/h (2 Bft) 0 min 9,6 km/h (2 Bft)
30.04.2010 16:30 22,4 C 17,6 C 0,8 UV-I 0,8 C 43 % 52 % 23 % 1016,6 hPa 0,0 l/m 8,8 km/h (2 Bft) 0 min 5,6 km/h (1 Bft)
30.04.2010 16:32 22,4 C 17,7 C 0,8 UV-I 0,5 C 43 % 52 % 14 % 1013,0 hPa 0,0 l/m 8,4 km/h (2 Bft) 0 min 6,8 km/h (2 Bft)
30.04.2010 16:34 22,4 C 17,5 C 0,8 UV-I 0,6 C 42 % 53 % 17 % 1013,0 hPa 0,0 l/m 9,6 km/h (2 Bft) 0 min 18,5 km/h (3 Bft)
30.04.2010 16:36 22,2 C 17,5 C 0,4 UV-I 0,4 C 42 % 53 % 11 % 1013,0 hPa 0,0 l/m 8,4 km/h (2 Bft) 0 min 4,0 km/h (1 Bft)
30.04.2010 16:38 22,3 C 17,5 C 0,4 UV-I 0,2 C 43 % 54 % 6 % 1013,0 hPa 0,0 l/m 8,0 km/h (2 Bft) 0 min 0,0 km/h (0 Bft)
30.04.2010 16:40 22,3 C 17,5 C 1,1 UV-I 0,3 C 43 % 54 % 9 % 1013,0 hPa 0,0 l/m 7,2 km/h (2 Bft) 0 min 9,6 km/h (2 Bft)
30.04.2010 16:42 22,3 C 17,4 C 1,1 UV-I 0,4 C 43 % 54 % 11 % 1013,0 hPa 0,0 l/m 7,6 km/h (2 Bft) 0 min 10,0 km/h (2 Bft)
30.04.2010 16:44 22,2 C 17,4 C 1,1 UV-I 0,5 C 43 % 54 % 14 % 1013,0 hPa 0,0 l/m 7,6 km/h (2 Bft) 0 min 11,6 km/h (2 Bft)
30.04.2010 16:46 22,2 C 17,4 C 1,3 UV-I 0,5 C 43 % 54 % 14 % 1013,0 hPa 0,0 l/m 6,8 km/h (2 Bft) 0 min 12,0 km/h (2 Bft)
30.04.2010 16:48 22,2 C 17,5 C 1,3 UV-I 0,3 C 43 % 54 % 9 % 1013,0 hPa 0,0 l/m 6,8 km/h (2 Bft) 0 min 4,0 km/h (1 Bft)
30.04.2010 16:50 22,2 C 17,5 C 0,5 UV-I 0,2 C 43 % 54 % 6 % 1013,0 hPa 0,0 l/m 6,4 km/h (2 Bft) 0 min 14,9 km/h (3 Bft)
30.04.2010 16:52 22,2 C 17,5 C 0,5 UV-I 0,2 C 44 % 54 % 6 % 1012,8 hPa 0,0 l/m 6,0 km/h (2 Bft) 0 min 7,6 km/h (2 Bft)
30.04.2010 16:54 22,2 C 17,3 C 0,5 UV-I 0,3 C 43 % 53 % 9 % 1012,8 hPa 0,0 l/m 6,8 km/h (2 Bft) 0 min 26,9 km/h (4 Bft)
30.04.2010 16:56 22,2 C 17,3 C 0,5 UV-I 0,2 C 44 % 54 % 6 % 1012,8 hPa 0,0 l/m 6,8 km/h (2 Bft) 0 min 9,2 km/h (2 Bft)
30.04.2010 16:58 22,2 C 17,2 C 0,5 UV-I 0,2 C 43 % 54 % 6 % 1012,8 hPa 0,0 l/m 6,8 km/h (2 Bft) 0 min 12,0 km/h (2 Bft)
30.04.2010 17:00 22,2 C 17,3 C 0,4 UV-I 0,1 C 43 % 55 % 3 % 1012,8 hPa 0,0 l/m 8,4 km/h (2 Bft) 0 min 7,6 km/h (2 Bft)
30.04.2010 17:02 22,1 C 17,1 C 0,4 UV-I 0,1 C 43 % 56 % 3 % 1012,8 hPa 0,0 l/m 9,6 km/h (2 Bft) 0 min 10,8 km/h (2 Bft)
30.04.2010 17:04 22,1 C 17,1 C 0,4 UV-I 0,0 C 43 % 57 % 0 % 1012,8 hPa 0,0 l/m 8,8 km/h (2 Bft) 0 min 7,2 km/h (2 Bft)
30.04.2010 17:06 22,1 C 17,1 C 0,3 UV-I 0,0 C 43 % 58 % 0 % 1012,8 hPa 0,0 l/m 8,8 km/h (2 Bft) 0 min 16,5 km/h (3 Bft)
30.04.2010 17:08 22,0 C 17,1 C 0,3 UV-I 0,0 C 43 % 58 % 0 % 1012,8 hPa 0,0 l/m 9,6 km/h (2 Bft) 0 min 23,3 km/h (4 Bft)
30.04.2010 17:10 22,1 C 16,9 C 0,4 UV-I 0,0 C 43 % 59 % 0 % 1012,8 hPa 0,0 l/m 8,4 km/h (2 Bft) 0 min 5,2 km/h (1 Bft)
30.04.2010 17:12 22,0 C 16,9 C 0,4 UV-I 0,0 C 43 % 59 % 0 % 1012,5 hPa 0,0 l/m 8,0 km/h (2 Bft) 0 min 15,3 km/h (3 Bft)
30.04.2010 17:14 22,0 C 16,9 C 0,4 UV-I 0,0 C 43 % 59 % 0 % 1012,5 hPa 0,0 l/m 6,4 km/h (2 Bft) 0 min 9,6 km/h (2 Bft)
30.04.2010 17:16 22,0 C 16,9 C 0,7 UV-I 0,0 C 43 % 59 % 0 % 1012,5 hPa 0,0 l/m 6,0 km/h (2 Bft) 0 min 4,4 km/h (1 Bft)
30.04.2010 17:18 22,0 C 16,8 C 0,7 UV-I 0,1 C 44 % 59 % 3 % 1012,5 hPa 0,0 l/m 5,6 km/h (1 Bft) 0 min 4,4 km/h (1 Bft)
30.04.2010 17:20 22,0 C 16,9 C 1,6 UV-I 0,1 C 44 % 59 % 3 % 1012,5 hPa 0,0 l/m 4,4 km/h (1 Bft) 0 min 7,2 km/h (2 Bft)
30.04.2010 17:22 22,0 C 16,9 C 1,6 UV-I 0,3 C 44 % 59 % 9 % 1012,5 hPa 0,0 l/m 5,2 km/h (1 Bft) 0 min 12,4 km/h (3 Bft)
30.04.2010 17:24 22,0 C 16,9 C 1,6 UV-I 0,4 C 44 % 59 % 11 % 1012,5 hPa 0,0 l/m 5,2 km/h (1 Bft) 0 min 4,0 km/h (1 Bft)
30.04.2010 17:26 22,0 C 16,9 C 1,8 UV-I 0,5 C 45 % 59 % 14 % 1012,5 hPa 0,0 l/m 5,6 km/h (1 Bft) 0 min 7,6 km/h (2 Bft)
30.04.2010 17:28 22,0 C 16,9 C 1,8 UV-I 0,6 C 45 % 59 % 17 % 1012,5 hPa 0,0 l/m 5,6 km/h (1 Bft) 0 min 7,6 km/h (2 Bft)
30.04.2010 17:30 22,0 C 16,9 C 1,9 UV-I 0,7 C 45 % 59 % 20 % 1012,5 hPa 0,0 l/m 5,6 km/h (1 Bft) 0 min 4,0 km/h (1 Bft)
30.04.2010 17:32 22,0 C 16,9 C 1,9 UV-I 0,8 C 45 % 60 % 23 % 1012,6 hPa 0,0 l/m 5,2 km/h (1 Bft) 0 min 0,0 km/h (0 Bft)
30.04.2010 17:34 22,0 C 16,9 C 1,9 UV-I 0,9 C 45 % 60 % 26 % 1012,6 hPa 0,0 l/m 5,2 km/h (1 Bft) 0 min 22,1 km/h (4 Bft)
30.04.2010 17:36 22,0 C 16,9 C 1,3 UV-I 0,8 C 45 % 59 % 23 % 1012,6 hPa 0,0 l/m 6,4 km/h (2 Bft) 0 min 10,8 km/h (2 Bft)
30.04.2010 17:38 22,0 C 16,8 C 1,3 UV-I 0,8 C 45 % 58 % 23 % 1012,6 hPa 0,0 l/m 6,8 km/h (2 Bft) 0 min 4,0 km/h (1 Bft)
30.04.2010 17:40 21,9 C 16,8 C 1,1 UV-I 0,7 C 45 % 58 % 20 % 1012,6 hPa 0,0 l/m 6,8 km/h (2 Bft) 0 min 19,7 km/h (3 Bft)
30.04.2010 17:42 21,9 C 16,7 C 1,1 UV-I 0,6 C 45 % 58 % 17 % 1012,6 hPa 0,0 l/m 8,4 km/h (2 Bft) 0 min 6,4 km/h (2 Bft)
30.04.2010 17:44 21,9 C 16,7 C 1,1 UV-I 0,5 C 45 % 58 % 14 % 1012,6 hPa 0,0 l/m 10,0 km/h (2 Bft) 0 min 21,3 km/h (4 Bft)
30.04.2010 17:46 22,0 C 16,7 C 1,1 UV-I 0,3 C 45 % 58 % 9 % 1012,6 hPa 0,0 l/m 9,2 km/h (2 Bft) 0 min 12,0 km/h (2 Bft)
30.04.2010 17:48 21,9 C 16,7 C 1,1 UV-I 0,1 C 45 % 58 % 3 % 1012,6 hPa 0,0 l/m 8,8 km/h (2 Bft) 0 min 6,0 km/h (2 Bft)
30.04.2010 17:50 21,9 C 16,6 C 0,3 UV-I 0,2 C 45 % 59 % 6 % 1012,6 hPa 0,0 l/m 9,2 km/h (2 Bft) 0 min 12,8 km/h (3 Bft)
30.04.2010 17:52 21,9 C 16,5 C 0,3 UV-I 0,1 C 45 % 59 % 3 % 1012,5 hPa 0,0 l/m 8,4 km/h (2 Bft) 0 min 7,2 km/h (2 Bft)
30.04.2010 17:54 21,9 C 16,5 C 0,3 UV-I 0,1 C 45 % 59 % 3 % 1012,5 hPa 0,0 l/m 8,4 km/h (2 Bft) 0 min 9,2 km/h (2 Bft)
30.04.2010 17:56 21,8 C 16,5 C 0,5 UV-I 0,1 C 45 % 59 % 3 % 1012,5 hPa 0,0 l/m 7,2 km/h (2 Bft) 0 min 0,0 km/h (0 Bft)
30.04.2010 17:58 21,8 C 16,5 C 0,5 UV-I 0,1 C 45 % 58 % 3 % 1012,5 hPa 0,0 l/m 6,4 km/h (2 Bft) 0 min 4,8 km/h (1 Bft)
30.04.2010 18:00 21,8 C 16,5 C 0,4 UV-I 0,1 C 45 % 58 % 3 % 1012,5 hPa 0,0 l/m 5,6 km/h (1 Bft) 0 min 4,8 km/h (1 Bft)
30.04.2010 18:02 21,8 C 16,4 C 0,4 UV-I 0,2 C 45 % 58 % 6 % 1012,5 hPa 0,0 l/m 5,6 km/h (1 Bft) 0 min 6,4 km/h (2 Bft)
30.04.2010 18:04 21,8 C 16,5 C 0,4 UV-I 0,0 C 45 % 58 % 0 % 1012,5 hPa 0,0 l/m 5,2 km/h (1 Bft) 0 min 0,0 km/h (0 Bft)
30.04.2010 18:06 21,8 C 16,5 C 0,2 UV-I 0,0 C 45 % 59 % 0 % 1012,5 hPa 0,0 l/m 4,4 km/h (1 Bft) 0 min 0,0 km/h (0 Bft)
30.04.2010 18:08 21,8 C 16,5 C 0,2 UV-I 0,0 C 45 % 59 % 0 % 1012,5 hPa 0,0 l/m 4,4 km/h (1 Bft) 0 min 6,4 km/h (2 Bft)
30.04.2010 18:10 21,8 C 16,5 C 0,1 UV-I 0,0 C 44 % 59 % 0 % 1012,5 hPa 0,0 l/m 4,0 km/h (1 Bft) 0 min 8,4 km/h (2 Bft)
30.04.2010 18:12 21,7 C 16,4 C 0,1 UV-I 0,0 C 44 % 59 % 0 % 1012,5 hPa 0,0 l/m 4,4 km/h (1 Bft) 0 min 6,4 km/h (2 Bft)
30.04.2010 18:14 21,7 C 16,3 C 0,1 UV-I 0,0 C 44 % 59 % 0 % 1012,5 hPa 0,0 l/m 4,4 km/h (1 Bft) 0 min 0,0 km/h (0 Bft)
30.04.2010 18:16 21,7 C 16,4 C 0,0 UV-I 0,0 C 45 % 59 % 0 % 1012,5 hPa 0,0 l/m 4,8 km/h (1 Bft) 0 min 4,8 km/h (1 Bft)
30.04.2010 18:18 21,7 C 16,3 C 0,0 UV-I 0,0 C 44 % 60 % 0 % 1012,5 hPa 0,0 l/m 4,8 km/h (1 Bft) 0 min 0,0 km/h (0 Bft)
30.04.2010 18:20 21,7 C 16,2 C 0,2 UV-I 0,0 C 45 % 60 % 0 % 1012,5 hPa 0,0 l/m 5,2 km/h (1 Bft) 0 min 5,2 km/h (1 Bft)
30.04.2010 18:22 21,6 C 16,2 C 0,2 UV-I 0,0 C 45 % 60 % 0 % 1012,5 hPa 0,0 l/m 4,8 km/h (1 Bft) 0 min 8,8 km/h (2 Bft)
30.04.2010 18:23 21,6 C 16,3 C 0,2 UV-I 0,0 C 46 % 60 % 0 % 1012,5 hPa 0,0 l/m 4,4 km/h (1 Bft) 0 min 6,4 km/h (2 Bft)
30.04.2010 18:28 21,6 C 16,3 C 0,9 UV-I 0,2 C 46 % 60 % 6 % 1012,5 hPa 0,0 l/m 3,6 km/h (1 Bft) 0 min 5,2 km/h (1 Bft)
30.04.2010 18:33 21,6 C 16,3 C 0,9 UV-I 0,5 C 46 % 60 % 14 % 1012,3 hPa 0,0 l/m 2,8 km/h (1 Bft) 0 min 11,2 km/h (2 Bft)
30.04.2010 18:38 21,6 C 16,3 C 0,6 UV-I 0,5 C 46 % 60 % 14 % 1012,3 hPa 0,0 l/m 2,8 km/h (1 Bft) 0 min 7,6 km/h (2 Bft)
30.04.2010 18:43 21,6 C 16,3 C 0,6 UV-I 0,5 C 46 % 60 % 14 % 1012,3 hPa 0,0 l/m 2,8 km/h (1 Bft) 0 min 0,0 km/h (0 Bft)
30.04.2010 18:48 21,6 C 16,2 C 0,6 UV-I 0,6 C 46 % 59 % 17 % 1012,3 hPa 0,0 l/m 3,6 km/h (1 Bft) 0 min 4,0 km/h (1 Bft)
30.04.2010 18:53 21,6 C 16,3 C 0,6 UV-I 0,4 C 46 % 59 % 11 % 1012,2 hPa 0,0 l/m 3,2 km/h (1 Bft) 0 min 0,0 km/h (0 Bft)
30.04.2010 18:58 21,6 C 16,1 C 0,1 UV-I 0,4 C 46 % 59 % 11 % 1012,2 hPa 0,0 l/m 2,4 km/h (1 Bft) 0 min 4,4 km/h (1 Bft)
30.04.2010 19:03 21,5 C 16,1 C 0,1 UV-I 0,2 C 46 % 58 % 6 % 1012,2 hPa 0,0 l/m 3,2 km/h (1 Bft) 0 min 9,6 km/h (2 Bft)
30.04.2010 19:08 21,5 C 16,0 C 0,0 UV-I 0,0 C 46 % 59 % 0 % 1012,2 hPa 0,0 l/m 3,2 km/h (1 Bft) 0 min 0,0 km/h (0 Bft)
30.04.2010 19:14 21,4 C 16,1 C 0,0 UV-I 0,0 C 46 % 58 % 0 % 1012,1 hPa 0,0 l/m 4,4 km/h (1 Bft) 0 min 5,6 km/h (1 Bft)
30.04.2010 19:16 21,4 C 16,0 C 0,0 UV-I 0,0 C 46 % 58 % 0 % 1012,1 hPa 0,0 l/m 4,0 km/h (1 Bft) 0 min 0,0 km/h (0 Bft)
30.04.2010 19:18 21,4 C 16,1 C 0,0 UV-I 0,0 C 46 % 58 % 0 % 1012,1 hPa 0,0 l/m 3,2 km/h (1 Bft) 0 min 5,6 km/h (1 Bft)
30.04.2010 19:20 21,4 C 15,9 C 0,0 UV-I 0,0 C 46 % 58 % 0 % 1012,1 hPa 0,0 l/m 3,2 km/h (1 Bft) 0 min 0,0 km/h (0 Bft)
30.04.2010 19:22 21,4 C 15,9 C 0,0 UV-I 0,0 C 45 % 59 % 0 % 1012,1 hPa 0,0 l/m 2,4 km/h (1 Bft) 0 min 5,6 km/h (1 Bft)
30.04.2010 19:24 21,4 C 15,9 C 0,0 UV-I 0,0 C 45 % 58 % 0 % 1012,1 hPa 0,0 l/m 2,0 km/h (1 Bft) 0 min 9,2 km/h (2 Bft)
30.04.2010 19:26 21,2 C 15,9 C 0,0 UV-I 0,0 C 45 % 58 % 0 % 1012,1 hPa 0,0 l/m 2,0 km/h (1 Bft) 0 min 5,6 km/h (1 Bft)
30.04.2010 19:28 21,2 C 15,8 C 0,0 UV-I 0,0 C 45 % 58 % 0 % 1012,1 hPa 0,0 l/m 2,8 km/h (1 Bft) 0 min 10,4 km/h (2 Bft)
30.04.2010 19:30 21,2 C 15,9 C 0,0 UV-I 0,0 C 45 % 58 % 0 % 1012,1 hPa 0,0 l/m 2,8 km/h (1 Bft) 0 min 4,0 km/h (1 Bft)
30.04.2010 19:32 21,2 C 15,9 C 0,0 UV-I 0,0 C 45 % 58 % 0 % 1012,0 hPa 0,0 l/m 2,8 km/h (1 Bft) 0 min 4,8 km/h (1 Bft)
30.04.2010 19:34 21,2 C 15,8 C 0,0 UV-I 0,0 C 45 % 58 % 0 % 1012,0 hPa 0,0 l/m 2,8 km/h (1 Bft) 0 min 0,0 km/h (0 Bft)
30.04.2010 19:36 21,3 C 15,8 C 0,0 UV-I 0,0 C 45 % 58 % 0 % 1012,0 hPa 0,0 l/m 2,4 km/h (1 Bft) 0 min 4,4 km/h (1 Bft)
30.04.2010 19:38 21,3 C 15,7 C 0,0 UV-I 0,0 C 45 % 58 % 0 % 1012,0 hPa 0,0 l/m 2,0 km/h (1 Bft) 0 min 0,0 km/h (0 Bft)
30.04.2010 19:40 21,3 C 15,7 C 0,0 UV-I 0,0 C 45 % 58 % 0 % 1012,0 hPa 0,0 l/m 1,6 km/h (1 Bft) 0 min 0,0 km/h (0 Bft)
30.04.2010 19:42 21,3 C 15,7 C 0,0 UV-I 0,0 C 45 % 58 % 0 % 1012,0 hPa 0,0 l/m 2,0 km/h (1 Bft) 0 min 6,8 km/h (2 Bft)
30.04.2010 19:44 21,3 C 15,7 C 0,0 UV-I 0,0 C 45 % 58 % 0 % 1012,0 hPa 0,0 l/m 2,0 km/h (1 Bft) 0 min 0,0 km/h (0 Bft)
30.04.2010 19:46 21,2 C 15,7 C 0,0 UV-I 0,0 C 45 % 58 % 0 % 1012,0 hPa 0,0 l/m 2,0 km/h (1 Bft) 0 min 0,0 km/h (0 Bft)
30.04.2010 19:48 21,2 C 15,6 C 0,0 UV-I 0,0 C 45 % 58 % 0 % 1012,0 hPa 0,0 l/m 2,0 km/h (1 Bft) 0 min 0,0 km/h (0 Bft)
30.04.2010 19:50 21,2 C 15,6 C 0,0 UV-I 0,0 C 45 % 58 % 0 % 1012,0 hPa 0,0 l/m 2,0 km/h (1 Bft) 0 min 0,0 km/h (0 Bft)
30.04.2010 19:52 21,2 C 15,6 C 0,0 UV-I 0,0 C 45 % 57 % 0 % 1012,1 hPa 0,0 l/m 2,0 km/h (1 Bft) 0 min 6,0 km/h (2 Bft)
30.04.2010 19:54 21,2 C 15,7 C 0,0 UV-I 0,0 C 45 % 57 % 0 % 1012,1 hPa 0,0 l/m 2,4 km/h (1 Bft) 0 min 5,2 km/h (1 Bft)
30.04.2010 19:56 21,2 C 15,6 C 0,0 UV-I 0,0 C 46 % 57 % 0 % 1012,1 hPa 0,0 l/m 3,2 km/h (1 Bft) 0 min 5,2 km/h (1 Bft)
30.04.2010 20:00 21,2 C 15,7 C 0,0 UV-I 0,0 C 45 % 58 % 0 % 1012,1 hPa 0,0 l/m 2,8 km/h (1 Bft) 0 min 0,0 km/h (0 Bft)
30.04.2010 20:02 21,2 C 15,6 C 0,0 UV-I 0,0 C 46 % 58 % 0 % 1012,1 hPa 0,0 l/m 2,4 km/h (1 Bft) 0 min 0,0 km/h (0 Bft)
30.04.2010 20:04 21,2 C 15,6 C 0,0 UV-I 0,0 C 45 % 58 % 0 % 1012,1 hPa 0,0 l/m 1,6 km/h (1 Bft) 0 min 0,0 km/h (0 Bft)
30.04.2010 20:06 21,2 C 15,6 C 0,0 UV-I 0,0 C 46 % 57 % 0 % 1012,1 hPa 0,0 l/m 0,8 km/h (0 Bft) 0 min 0,0 km/h (0 Bft)
30.04.2010 20:08 21,2 C 15,5 C 0,0 UV-I 0,0 C 46 % 57 % 0 % 1012,1 hPa 0,0 l/m 0,8 km/h (0 Bft) 0 min 0,0 km/h (0 Bft)
30.04.2010 20:10 21,2 C 15,5 C 0,0 UV-I 0,0 C 46 % 57 % 0 % 1012,1 hPa 0,0 l/m 0,8 km/h (0 Bft) 0 min 0,0 km/h (0 Bft)
30.04.2010 20:12 21,2 C 15,4 C 0,0 UV-I 0,0 C 46 % 57 % 0 % 1012,1 hPa 0,0 l/m 2,4 km/h (1 Bft) 0 min 18,1 km/h (3 Bft)
30.04.2010 20:14 21,2 C 15,5 C 0,0 UV-I 0,0 C 46 % 57 % 0 % 1012,1 hPa 0,0 l/m 3,6 km/h (1 Bft) 0 min 8,4 km/h (2 Bft)
30.04.2010 20:16 21,1 C 15,4 C 0,0 UV-I 0,0 C 46 % 58 % 0 % 1012,1 hPa 0,0 l/m 4,0 km/h (1 Bft) 0 min 0,0 km/h (0 Bft)
30.04.2010 20:18 21,1 C 15,3 C 0,0 UV-I 0,0 C 46 % 58 % 0 % 1012,1 hPa 0,0 l/m 3,6 km/h (1 Bft) 0 min 0,0 km/h (0 Bft)
30.04.2010 20:20 21,1 C 15,3 C 0,0 UV-I 0,0 C 46 % 58 % 0 % 1012,1 hPa 0,0 l/m 4,0 km/h (1 Bft) 0 min 0,0 km/h (0 Bft)
30.04.2010 20:22 21,1 C 15,2 C 0,0 UV-I 0,0 C 46 % 59 % 0 % 1012,1 hPa 0,0 l/m 3,6 km/h (1 Bft) 0 min 5,6 km/h (1 Bft)
30.04.2010 20:24 21,1 C 15,3 C 0,0 UV-I 0,0 C 46 % 59 % 0 % 1012,1 hPa 0,0 l/m 3,2 km/h (1 Bft) 0 min 13,3 km/h (3 Bft)
30.04.2010 20:26 21,1 C 15,2 C 0,0 UV-I 0,0 C 46 % 59 % 0 % 1012,1 hPa 0,0 l/m 2,8 km/h (1 Bft) 0 min 10,4 km/h (2 Bft)
30.04.2010 20:28 21,1 C 15,2 C 0,0 UV-I 0,0 C 46 % 59 % 0 % 1012,1 hPa 0,0 l/m 3,6 km/h (1 Bft) 0 min 5,2 km/h (1 Bft)
30.04.2010 20:30 21,0 C 15,1 C 0,0 UV-I 0,0 C 46 % 59 % 0 % 1012,1 hPa 0,0 l/m 3,6 km/h (1 Bft) 0 min 0,0 km/h (0 Bft)
30.04.2010 20:34 21,0 C 15,1 C 0,0 UV-I 0,0 C 46 % 59 % 0 % 1012,2 hPa 0,0 l/m 4,0 km/h (1 Bft) 0 min 11,2 km/h (2 Bft)
30.04.2010 20:36 21,0 C 15,0 C 0,0 UV-I 0,0 C 46 % 59 % 0 % 1012,2 hPa 0,0 l/m 3,6 km/h (1 Bft) 0 min 4,4 km/h (1 Bft)
30.04.2010 20:38 21,0 C 15,0 C 0,0 UV-I 0,0 C 46 % 59 % 0 % 1012,2 hPa 0,0 l/m 3,2 km/h (1 Bft) 0 min 7,6 km/h (2 Bft)
30.04.2010 20:40 21,0 C 14,9 C 0,0 UV-I 0,0 C 46 % 59 % 0 % 1012,2 hPa 0,0 l/m 3,2 km/h (1 Bft) 0 min 0,0 km/h (0 Bft)
30.04.2010 20:42 21,0 C 14,9 C 0,0 UV-I 0,0 C 46 % 60 % 0 % 1012,2 hPa 0,0 l/m 3,6 km/h (1 Bft) 0 min 0,0 km/h (0 Bft)
30.04.2010 20:44 21,0 C 14,8 C 0,0 UV-I 0,0 C 46 % 60 % 0 % 1012,2 hPa 0,0 l/m 4,0 km/h (1 Bft) 0 min 9,2 km/h (2 Bft)
30.04.2010 20:46 21,0 C 14,9 C 0,0 UV-I 0,0 C 46 % 60 % 0 % 1012,2 hPa 0,0 l/m 3,2 km/h (1 Bft) 0 min 6,0 km/h (2 Bft)
30.04.2010 20:48 21,0 C 14,8 C 0,0 UV-I 0,0 C 46 % 60 % 0 % 1012,2 hPa 0,0 l/m 2,8 km/h (1 Bft) 0 min 5,2 km/h (1 Bft)
30.04.2010 20:50 20,9 C 14,8 C 0,0 UV-I 0,0 C 46 % 60 % 0 % 1012,2 hPa 0,0 l/m 2,4 km/h (1 Bft) 0 min 6,0 km/h (2 Bft)
30.04.2010 20:54 20,9 C 14,6 C 0,0 UV-I 0,0 C 46 % 60 % 0 % 1012,1 hPa 0,0 l/m 2,0 km/h (1 Bft) 0 min 0,0 km/h (0 Bft)
30.04.2010 20:56 20,9 C 14,7 C 0,0 UV-I 0,0 C 46 % 61 % 0 % 1012,1 hPa 0,0 l/m 1,2 km/h (1 Bft) 0 min 0,0 km/h (0 Bft)
30.04.2010 20:58 20,9 C 14,5 C 0,0 UV-I 0,0 C 46 % 61 % 0 % 1012,1 hPa 0,0 l/m 0,8 km/h (0 Bft) 0 min 4,4 km/h (1 Bft)
30.04.2010 21:00 20,8 C 14,5 C 0,0 UV-I 0,0 C 46 % 61 % 0 % 1012,1 hPa 0,0 l/m 1,6 km/h (1 Bft) 0 min 10,4 km/h (2 Bft)
30.04.2010 21:02 20,8 C 14,5 C 0,0 UV-I 0,0 C 46 % 61 % 0 % 1012,1 hPa 0,0 l/m 1,2 km/h (1 Bft) 0 min 0,0 km/h (0 Bft)
30.04.2010 21:04 20,8 C 14,4 C 0,0 UV-I 0,0 C 46 % 61 % 0 % 1012,1 hPa 0,0 l/m 1,2 km/h (1 Bft) 0 min 0,0 km/h (0 Bft)
30.04.2010 21:06 20,8 C 14,4 C 0,0 UV-I 0,0 C 46 % 62 % 0 % 1012,1 hPa 0,0 l/m 1,2 km/h (1 Bft) 0 min 0,0 km/h (0 Bft)
30.04.2010 21:08 20,8 C 14,4 C 0,0 UV-I 0,0 C 46 % 62 % 0 % 1012,1 hPa 0,0 l/m 1,2 km/h (1 Bft) 0 min 7,2 km/h (2 Bft)
30.04.2010 21:10 20,8 C 14,3 C 0,0 UV-I 0,0 C 46 % 62 % 0 % 1012,1 hPa 0,0 l/m 1,2 km/h (1 Bft) 0 min 0,0 km/h (0 Bft)
30.04.2010 21:12 20,8 C 14,3 C 0,0 UV-I 0,0 C 47 % 62 % 0 % 1012,5 hPa 0,0 l/m 0,4 km/h (0 Bft) 0 min 0,0 km/h (0 Bft)
30.04.2010 21:14 20,8 C 14,2 C 0,0 UV-I 0,0 C 47 % 63 % 0 % 1012,5 hPa 0,0 l/m 0,4 km/h (0 Bft) 0 min 0,0 km/h (0 Bft)
30.04.2010 21:16 20,8 C 14,3 C 0,0 UV-I 0,0 C 47 % 63 % 0 % 1012,5 hPa 0,0 l/m 0,4 km/h (0 Bft) 0 min 0,0 km/h (0 Bft)
30.04.2010 21:18 20,7 C 14,1 C 0,0 UV-I 0,0 C 47 % 63 % 0 % 1012,5 hPa 0,0 l/m 0,4 km/h (0 Bft) 0 min 0,0 km/h (0 Bft)
30.04.2010 21:20 20,7 C 14,1 C 0,0 UV-I 0,0 C 47 % 63 % 0 % 1012,5 hPa 0,0 l/m 0,0 km/h (0 Bft) 0 min 0,0 km/h (0 Bft)
30.04.2010 21:22 20,7 C 14,0 C 0,0 UV-I 0,0 C 47 % 63 % 0 % 1012,5 hPa 0,0 l/m 0,0 km/h (0 Bft) 0 min 0,0 km/h (0 Bft)
30.04.2010 21:24 20,7 C 14,1 C 0,0 UV-I 0,0 C 47 % 63 % 0 % 1012,5 hPa 0,0 l/m 0,0 km/h (0 Bft) 0 min 0,0 km/h (0 Bft)
30.04.2010 21:26 20,6 C 14,0 C 0,0 UV-I 0,0 C 47 % 64 % 0 % 1012,5 hPa 0,0 l/m 0,0 km/h (0 Bft) 0 min 0,0 km/h (0 Bft)
30.04.2010 21:28 20,6 C 13,9 C 0,0 UV-I 0,0 C 47 % 64 % 0 % 1012,5 hPa 0,0 l/m 0,0 km/h (0 Bft) 0 min 0,0 km/h (0 Bft)
30.04.2010 21:30 20,6 C 13,9 C 0,0 UV-I 0,0 C 47 % 64 % 0 % 1012,5 hPa 0,0 l/m 0,0 km/h (0 Bft) 0 min 0,0 km/h (0 Bft)
30.04.2010 21:32 20,6 C 13,9 C 0,0 UV-I 0,0 C 47 % 64 % 0 % 1012,6 hPa 0,0 l/m 0,0 km/h (0 Bft) 0 min 0,0 km/h (0 Bft)
30.04.2010 21:34 20,6 C 13,9 C 0,0 UV-I 0,0 C 47 % 64 % 0 % 1012,6 hPa 0,0 l/m 0,0 km/h (0 Bft) 0 min 0,0 km/h (0 Bft)
30.04.2010 21:36 20,5 C 13,7 C 0,0 UV-I 0,0 C 47 % 65 % 0 % 1012,6 hPa 0,0 l/m 0,0 km/h (0 Bft) 0 min 0,0 km/h (0 Bft)
30.04.2010 21:38 20,5 C 13,7 C 0,0 UV-I 0,0 C 47 % 65 % 0 % 1012,6 hPa 0,0 l/m 0,0 km/h (0 Bft) 0 min 0,0 km/h (0 Bft)
30.04.2010 21:40 20,5 C 13,6 C 0,0 UV-I 0,0 C 47 % 65 % 0 % 1012,6 hPa 0,0 l/m 0,0 km/h (0 Bft) 0 min 0,0 km/h (0 Bft)
30.04.2010 21:42 20,5 C 13,7 C 0,0 UV-I 0,0 C 47 % 66 % 0 % 1012,6 hPa 0,0 l/m 0,0 km/h (0 Bft) 0 min 0,0 km/h (0 Bft)
30.04.2010 21:44 20,5 C 13,6 C 0,0 UV-I 0,0 C 47 % 66 % 0 % 1012,6 hPa 0,0 l/m 0,0 km/h (0 Bft) 0 min 0,0 km/h (0 Bft)
30.04.2010 21:46 20,5 C 13,5 C 0,0 UV-I 0,0 C 47 % 66 % 0 % 1012,6 hPa 0,0 l/m 0,0 km/h (0 Bft) 0 min 0,0 km/h (0 Bft)
30.04.2010 21:48 20,4 C 13,5 C 0,0 UV-I 0,0 C 47 % 67 % 0 % 1012,6 hPa 0,0 l/m 0,0 km/h (0 Bft) 0 min 0,0 km/h (0 Bft)
30.04.2010 21:50 20,4 C 13,5 C 0,0 UV-I 0,0 C 47 % 67 % 0 % 1012,6 hPa 0,0 l/m 0,0 km/h (0 Bft) 0 min 0,0 km/h (0 Bft)
30.04.2010 21:52 20,4 C 13,5 C 0,0 UV-I 0,0 C 47 % 67 % 0 % 1012,9 hPa 0,0 l/m 0,0 km/h (0 Bft) 0 min 0,0 km/h (0 Bft)
30.04.2010 21:54 20,4 C 13,4 C 0,0 UV-I 0,0 C 47 % 67 % 0 % 1012,9 hPa 0,0 l/m 0,0 km/h (0 Bft) 0 min 0,0 km/h (0 Bft)
30.04.2010 21:56 20,4 C 13,3 C 0,0 UV-I 0,0 C 47 % 67 % 0 % 1012,9 hPa 0,0 l/m 0,0 km/h (0 Bft) 0 min 0,0 km/h (0 Bft)
30.04.2010 21:58 20,4 C 13,3 C 0,0 UV-I 0,0 C 47 % 68 % 0 % 1012,9 hPa 0,0 l/m 0,0 km/h (0 Bft) 0 min 0,0 km/h (0 Bft)
30.04.2010 22:02 20,4 C 13,3 C 0,0 UV-I 0,0 C 48 % 68 % 0 % 1012,9 hPa 0,0 l/m 0,0 km/h (0 Bft) 0 min 0,0 km/h (0 Bft)
30.04.2010 22:04 20,4 C 13,2 C 0,0 UV-I 0,0 C 48 % 68 % 0 % 1012,9 hPa 0,0 l/m 0,0 km/h (0 Bft) 0 min 0,0 km/h (0 Bft)
30.04.2010 22:06 20,4 C 13,1 C 0,0 UV-I 0,0 C 48 % 69 % 0 % 1012,9 hPa 0,0 l/m 0,0 km/h (0 Bft) 0 min 0,0 km/h (0 Bft)
30.04.2010 22:08 20,2 C 13,0 C 0,0 UV-I 0,0 C 48 % 69 % 0 % 1012,9 hPa 0,0 l/m 0,0 km/h (0 Bft) 0 min 0,0 km/h (0 Bft)
30.04.2010 22:10 20,2 C 13,1 C 0,0 UV-I 0,0 C 48 % 69 % 0 % 1012,9 hPa 0,0 l/m 0,0 km/h (0 Bft) 0 min 0,0 km/h (0 Bft)
30.04.2010 22:18 20,3 C 12,8 C 0,0 UV-I 0,0 C 48 % 69 % 0 % 1012,5 hPa 0,0 l/m 0,0 km/h (0 Bft) 0 min 0,0 km/h (0 Bft)
30.04.2010 22:20 20,3 C 12,8 C 0,0 UV-I 0,0 C 48 % 70 % 0 % 1012,5 hPa 0,0 l/m 0,0 km/h (0 Bft) 0 min 0,0 km/h (0 Bft)
30.04.2010 22:22 20,3 C 12,8 C 0,0 UV-I 0,0 C 48 % 70 % 0 % 1012,5 hPa 0,0 l/m 0,0 km/h (0 Bft) 0 min 0,0 km/h (0 Bft)
30.04.2010 22:24 20,2 C 12,8 C 0,0 UV-I 0,0 C 48 % 70 % 0 % 1012,5 hPa 0,0 l/m 0,0 km/h (0 Bft) 0 min 0,0 km/h (0 Bft)
30.04.2010 22:26 20,2 C 12,7 C 0,0 UV-I 0,0 C 48 % 70 % 0 % 1012,5 hPa 0,0 l/m 0,0 km/h (0 Bft) 0 min 0,0 km/h (0 Bft)
30.04.2010 22:28 20,2 C 12,7 C 0,0 UV-I 0,0 C 48 % 71 % 0 % 1012,5 hPa 0,0 l/m 0,0 km/h (0 Bft) 0 min 0,0 km/h (0 Bft)
30.04.2010 22:30 20,2 C 12,7 C 0,0 UV-I 0,0 C 48 % 71 % 0 % 1012,5 hPa 0,0 l/m 0,0 km/h (0 Bft) 0 min 0,0 km/h (0 Bft)
30.04.2010 22:32 20,2 C 12,5 C 0,0 UV-I 0,0 C 48 % 71 % 0 % 1013,1 hPa 0,0 l/m 0,0 km/h (0 Bft) 0 min 0,0 km/h (0 Bft)
30.04.2010 22:34 20,2 C 12,5 C 0,0 UV-I 0,0 C 48 % 71 % 0 % 1013,1 hPa 0,0 l/m 0,0 km/h (0 Bft) 0 min 0,0 km/h (0 Bft)
30.04.2010 22:36 20,2 C 12,4 C 0,0 UV-I 0,0 C 48 % 72 % 0 % 1013,1 hPa 0,0 l/m 0,0 km/h (0 Bft) 0 min 0,0 km/h (0 Bft)
30.04.2010 22:40 20,2 C 12,4 C 0,0 UV-I 0,0 C 48 % 72 % 0 % 1013,1 hPa 0,0 l/m 0,0 km/h (0 Bft) 0 min 0,0 km/h (0 Bft)
30.04.2010 22:42 20,1 C 12,3 C 0,0 UV-I 0,0 C 48 % 72 % 0 % 1013,1 hPa 0,0 l/m 0,0 km/h (0 Bft) 0 min 0,0 km/h (0 Bft)
30.04.2010 22:44 20,1 C 12,2 C 0,0 UV-I 0,0 C 48 % 72 % 0 % 1013,1 hPa 0,0 l/m 0,0 km/h (0 Bft) 0 min 0,0 km/h (0 Bft)
30.04.2010 22:46 20,1 C 12,3 C 0,0 UV-I 0,0 C 48 % 73 % 0 % 1013,1 hPa 0,0 l/m 0,0 km/h (0 Bft) 0 min 0,0 km/h (0 Bft)
30.04.2010 22:48 20,1 C 12,2 C 0,0 UV-I 0,0 C 48 % 73 % 0 % 1013,1 hPa 0,0 l/m 0,0 km/h (0 Bft) 0 min 0,0 km/h (0 Bft)
30.04.2010 22:50 20,1 C 12,1 C 0,0 UV-I 0,0 C 48 % 73 % 0 % 1013,1 hPa 0,0 l/m 0,0 km/h (0 Bft) 0 min 0,0 km/h (0 Bft)
30.04.2010 22:52 20,1 C 12,1 C 0,0 UV-I 0,0 C 48 % 74 % 0 % 1012,4 hPa 0,0 l/m 0,0 km/h (0 Bft) 0 min 0,0 km/h (0 Bft)
30.04.2010 22:54 20,1 C 12,0 C 0,0 UV-I 0,0 C 48 % 74 % 0 % 1012,4 hPa 0,0 l/m 0,0 km/h (0 Bft) 0 min 0,0 km/h (0 Bft)
30.04.2010 22:56 20,1 C 12,0 C 0,0 UV-I 0,0 C 48 % 74 % 0 % 1012,4 hPa 0,0 l/m 0,0 km/h (0 Bft) 0 min 0,0 km/h (0 Bft)
30.04.2010 22:58 20,0 C 12,0 C 0,0 UV-I 0,0 C 49 % 74 % 0 % 1012,4 hPa 0,0 l/m 0,0 km/h (0 Bft) 0 min 0,0 km/h (0 Bft)
30.04.2010 23:00 20,0 C 11,9 C 0,0 UV-I 0,0 C 49 % 75 % 0 % 1012,4 hPa 0,0 l/m 0,0 km/h (0 Bft) 0 min 0,0 km/h (0 Bft)
30.04.2010 23:04 20,0 C 11,8 C 0,0 UV-I 0,0 C 49 % 75 % 0 % 1012,4 hPa 0,0 l/m 0,0 km/h (0 Bft) 0 min 0,0 km/h (0 Bft)
30.04.2010 23:10 20,0 C 11,7 C 0,0 UV-I 0,0 C 49 % 76 % 0 % 1012,4 hPa 0,0 l/m 0,0 km/h (0 Bft) 0 min 0,0 km/h (0 Bft)
30.04.2010 23:12 20,0 C 11,6 C 0,0 UV-I 0,0 C 49 % 76 % 0 % 1012,3 hPa 0,0 l/m 0,0 km/h (0 Bft) 0 min 0,0 km/h (0 Bft)
30.04.2010 23:14 20,0 C 11,5 C 0,0 UV-I 0,0 C 49 % 76 % 0 % 1012,3 hPa 0,0 l/m 0,0 km/h (0 Bft) 0 min 0,0 km/h (0 Bft)
30.04.2010 23:18 20,0 C 11,5 C 0,0 UV-I 0,0 C 49 % 76 % 0 % 1012,3 hPa 0,0 l/m 0,0 km/h (0 Bft) 0 min 0,0 km/h (0 Bft)
30.04.2010 23:24 19,9 C 11,2 C 0,0 UV-I 0,0 C 49 % 76 % 0 % 1012,3 hPa 0,0 l/m 0,0 km/h (0 Bft) 0 min 0,0 km/h (0 Bft)
30.04.2010 23:26 19,9 C 11,3 C 0,0 UV-I 0,0 C 49 % 77 % 0 % 1012,3 hPa 0,0 l/m 0,0 km/h (0 Bft) 0 min 0,0 km/h (0 Bft)
30.04.2010 23:28 19,9 C 11,2 C 0,0 UV-I 0,0 C 49 % 77 % 0 % 1012,3 hPa 0,0 l/m 0,0 km/h (0 Bft) 0 min 0,0 km/h (0 Bft)
30.04.2010 23:30 19,9 C 11,1 C 0,0 UV-I 0,0 C 49 % 77 % 0 % 1012,3 hPa 0,0 l/m 0,0 km/h (0 Bft) 0 min 0,0 km/h (0 Bft)
30.04.2010 23:32 19,9 C 11,0 C 0,0 UV-I 0,0 C 49 % 77 % 0 % 1012,4 hPa 0,0 l/m 0,0 km/h (0 Bft) 0 min 0,0 km/h (0 Bft)
30.04.2010 23:42 19,9 C 10,8 C 0,0 UV-I 0,0 C 49 % 78 % 0 % 1012,4 hPa 0,0 l/m 0,0 km/h (0 Bft) 0 min 0,0 km/h (0 Bft)
30.04.2010 23:48 19,8 C 10,7 C 0,0 UV-I 0,0 C 49 % 79 % 0 % 1012,4 hPa 0,0 l/m 0,0 km/h (0 Bft) 0 min 0,0 km/h (0 Bft)
30.04.2010 23:50 19,8 C 10,6 C 0,0 UV-I 0,0 C 49 % 79 % 0 % 1012,4 hPa 0,0 l/m 0,0 km/h (0 Bft) 0 min 0,0 km/h (0 Bft)
30.04.2010 23:52 19,8 C 10,5 C 0,0 UV-I 0,0 C 49 % 79 % 0 % 1012,5 hPa 0,0 l/m 0,0 km/h (0 Bft) 0 min 0,0 km/h (0 Bft)
30.04.2010 23:56 19,8 C 10,4 C 0,0 UV-I 0,0 C 49 % 79 % 0 % 1012,5 hPa 0,0 l/m 0,0 km/h (0 Bft) 0 min 0,0 km/h (0 Bft)
_ Min-Zeit 23:48 23:56 00:02 00:02 16:08 00:06 00:02 01:52 - 21:20 - 00:08
Minimum _ 19,8 C 10,4 C 0,0 UV-I 0,0 C 42 % 50 % 0 % 1005,2 hPa - 0,0 km/h (0 Bft) - 0,0 km/h (0 Bft)
_ Max-Zeit 16:02 00:02 14:52 13:26 05:12 07:14 13:24 16:12 00:02 13:08 13:18 14:34
Maximum _ 22,5 C 20,5 C 9,2 UV-I 3,7 C 52 % 81 % 100 % 1016,6 hPa 0,0 l/m 15,3 km/h
N-NW (3 Bft)
2 min 49,0 km/h
SO (6 Bft)
Durchschnitt _ 21,2 C 16,0 C 0,9 UV-I 0,5 C 48 % 65 % 14 % 1010,4 hPa #0,0 l/m 7,2 km/h (2 Bft) #54 min. 10,4 km/h (2 Bft)
© 2012 W. Hausmann